ECMWFFLT1_250_spd_000.txt.gz
Wind_Speed
26 26 26 25 26 25 25 25 26 26 27 28 29 30 30 32 34 35 35 35 35 34 35 34 35 41 47 49 49 49 47 46 46 44 42 43 43 42 43 46 48 47 47 45 42 41 41 41 42 44 45 47 48 49 49 48 46 44 44 43 42 41 42
28 28 28 27 27 27 27 27 27 27 28 29 30 30 31 33 34 35 35 35 35 35 35 35 35 38 45 49 50 50 50 50 49 47 45 45 45 44 43 45 46 47 47 47 45 43 42 43 43 45 46 47 48 48 49 50 50 47 46 45 43 42 41
29 29 29 29 29 29 29 29 28 28 28 29 30 31 32 33 35 35 36 35 35 36 36 36 36 37 41 47 50 51 51 53 53 51 48 46 46 46 45 45 46 46 45 45 45 45 45 45 45 46 46 47 46 47 48 50 50 49 48 47 45 44 43
32 32 31 31 30 30 30 30 30 30 29 29 30 32 32 33 35 36 36 36 36 36 36 36 37 38 40 44 49 52 53 54 56 56 53 50 49 50 49 47 46 48 47 44 43 44 46 47 48 48 48 48 48 48 48 49 49 48 47 47 46 45 46
35 35 35 34 33 32 31 31 31 31 31 30 30 32 33 34 35 36 37 37 37 37 37 37 38 38 39 42 46 50 53 55 56 58 58 55 51 51 54 53 50 49 51 49 46 44 45 47 49 50 50 50 50 50 49 49 49 48 46 47 47 46 47
38 38 38 38 37 36 35 33 32 32 32 32 31 32 33 35 36 37 38 38 38 38 38 38 39 39 40 41 44 47 51 54 56 58 60 60 56 52 52 55 56 54 53 54 52 49 47 47 49 51 52 52 52 52 52 51 51 50 49 48 48 48 49
41 40 40 40 40 40 39 38 36 35 34 33 33 33 34 35 37 38 39 39 39 39 39 39 39 40 41 42 43 45 48 52 55 58 60 62 61 57 53 53 56 57 56 56 56 55 51 50 51 52 53 54 55 54 54 54 53 52 52 51 51 51 51
43 43 42 43 43 43 43 42 41 39 38 36 36 35 35 36 37 38 40 40 40 41 41 41 41 41 41 42 43 45 47 49 53 56 59 61 63 63 60 57 55 56 57 57 57 58 57 55 53 54 54 55 55 55 54 55 56 55 54 54 54 53 53
46 45 45 45 45 45 45 45 44 43 42 41 40 39 39 38 39 40 40 41 41 42 42 43 42 42 42 42 43 44 46 48 51 54 57 60 62 65 66 64 61 58 58 58 59 59 60 59 58 56 56 56 56 55 54 55 55 57 57 56 55 55 55
48 48 47 47 47 47 47 47 47 46 45 45 44 44 43 42 42 41 42 42 42 42 43 43 44 44 44 44 44 44 45 47 49 52 55 58 60 63 65 67 66 64 61 61 62 61 61 62 63 62 61 60 60 59 58 57 56 56 58 59 57 57 57
50 50 50 50 50 50 50 49 49 49 48 48 47 47 46 46 45 45 44 44 44 44 43 44 45 45 45 46 46 45 45 47 48 50 52 55 58 60 63 65 67 68 67 65 64 64 62 61 63 66 67 66 66 64 63 62 61 59 59 60 59 59 60
52 52 53 53 53 53 53 53 52 51 51 50 49 49 49 49 49 48 48 47 46 46 46 45 46 46 47 47 48 48 48 48 49 50 51 53 55 57 60 62 64 66 68 68 67 67 65 63 62 63 67 69 69 70 69 67 66 64 64 63 60 59 60
54 54 55 56 55 55 55 55 55 54 53 53 52 52 51 51 51 51 51 50 50 50 49 48 48 48 48 48 49 50 51 51 51 51 51 52 54 55 57 59 61 63 65 67 68 69 69 68 65 63 64 66 68 70 71 71 70 68 67 67 66 64 61
56 56 57 58 58 58 57 57 57 57 57 56 56 55 55 54 54 53 53 53 53 54 53 53 52 52 51 50 50 51 52 53 53 53 53 53 54 55 56 57 59 61 62 64 65 67 68 70 70 67 65 65 66 68 69 71 72 71 69 69 70 70 69
60 60 60 61 61 61 60 60 60 60 60 59 59 59 58 58 57 57 56 55 55 56 57 57 57 56 55 54 53 53 53 54 54 55 56 56 56 56 57 58 59 60 60 62 63 65 66 68 69 69 68 67 66 68 69 69 70 72 72 71 71 71 72
64 64 63 63 64 63 63 62 62 62 62 62 62 62 62 61 61 60 60 59 59 59 59 60 60 60 59 58 57 57 56 56 56 56 57 58 58 58 58 59 60 61 61 62 62 63 65 66 67 68 69 68 67 68 70 70 70 71 72 73 73 73 74
67 66 66 66 66 66 66 65 65 65 65 65 65 65 64 64 64 63 63 63 62 63 63 63 63 63 63 62 62 61 60 59 59 59 59 59 60 61 61 61 61 62 62 63 63 64 64 65 66 67 68 68 68 68 70 72 72 72 72 72 73 74 75
69 68 68 68 69 69 69 69 69 69 69 68 68 67 67 66 66 66 66 66 66 67 67 67 67 66 66 66 66 66 65 64 63 62 62 62 62 63 63 64 64 64 64 64 65 65 66 66 67 67 68 68 68 69 70 71 72 73 74 74 74 74 74
67 66 66 66 68 69 70 71 72 73 73 72 71 70 70 69 68 68 68 68 69 69 70 71 70 70 69 69 69 69 69 68 68 67 66 65 65 65 65 66 66 66 66 66 66 66 67 68 68 68 68 69 69 69 70 71 72 73 74 74 75 75 75
64 62 61 62 64 67 69 71 73 74 74 74 74 74 73 71 71 71 71 71 72 72 72 73 73 73 72 72 72 72 72 72 72 71 70 69 69 68 68 68 68 68 68 69 68 68 68 69 69 69 69 70 70 70 71 71 72 73 74 74 75 76 76
62 60 60 61 63 65 67 69 72 73 74 75 76 75 74 73 73 74 75 76 76 76 75 75 75 75 75 75 75 74 74 74 75 74 74 74 73 72 72 71 71 70 70 71 71 71 71 70 70 70 70 70 70 71 71 72 73 74 74 75 76 76 77
63 61 61 62 63 64 65 67 69 72 73 74 74 74 73 73 73 75 78 80 80 80 80 79 78 77 77 77 77 77 77 78 78 77 77 77 77 76 76 75 75 74 74 73 73 73 73 73 72 72 72 71 71 71 72 73 74 75 76 76 77 78 78
67 65 63 63 64 64 66 67 69 71 72 72 72 71 70 69 69 71 77 82 81 81 82 82 82 81 80 79 79 79 80 80 81 81 80 80 80 80 80 79 79 78 77 77 76 75 75 75 75 75 75 74 73 73 73 74 75 76 76 77 78 79 80
70 69 67 66 65 65 67 68 70 71 71 70 70 69 68 67 66 68 74 79 80 81 82 84 85 85 85 84 83 81 81 82 83 83 83 83 83 83 83 82 82 82 81 80 79 79 78 78 78 78 77 77 77 76 76 76 76 77 77 78 79 80 81
73 72 71 69 67 67 68 69 71 72 72 70 69 68 66 66 67 70 73 75 76 79 81 84 86 88 88 88 86 84 84 84 84 85 85 85 86 86 86 85 85 85 84 84 84 83 82 82 81 81 81 80 80 79 79 79 79 79 79 80 81 82 83
75 75 74 72 70 70 71 71 72 73 73 72 70 68 67 66 68 71 73 72 73 76 79 82 85 88 90 90 88 87 87 88 88 88 87 87 87 88 88 88 88 87 87 87 87 87 86 86 85 85 84 84 84 83 83 82 82 82 82 82 83 84 85
77 76 76 74 73 72 72 73 73 73 74 74 73 71 69 68 69 71 72 72 72 76 78 80 83 86 87 87 86 87 89 91 91 91 91 91 90 90 90 90 90 90 89 89 89 89 89 89 88 88 88 88 88 87 87 86 86 86 86 86 86 86 87
78 78 78 76 75 74 74 74 75 75 75 75 74 73 72 71 71 72 72 72 73 76 79 81 83 83 82 81 83 85 88 90 91 92 93 94 94 93 92 92 92 91 91 91 92 92 92 91 90 91 91 91 91 91 91 90 90 90 90 90 89 89 90
81 80 80 79 77 76 76 76 76 76 76 76 76 75 74 74 73 73 73 74 75 77 79 81 82 80 79 79 81 84 86 87 88 89 92 94 96 96 95 95 95 94 93 93 93 93 93 93 92 92 93 93 94 94 94 94 94 95 94 94 93 92 93
83 82 82 81 79 78 78 78 77 77 78 78 77 77 76 76 75 75 75 76 76 77 79 81 81 78 77 78 81 83 84 85 85 86 88 91 94 96 96 97 97 96 96 95 95 95 95 94 94 93 94 95 95 96 96 97 98 98 97 96 96 96 96
83 83 82 82 81 80 79 79 79 79 79 79 79 79 79 78 77 77 77 76 78 79 80 81 80 78 77 78 79 80 81 83 83 84 85 87 89 92 94 97 98 98 98 97 98 98 98 97 95 95 95 95 96 96 97 98 99 99 99 99 98 99 99
82 81 81 81 80 80 80 80 80 80 80 80 80 81 80 79 79 78 77 77 78 79 80 79 79 78 77 78 78 78 80 81 81 82 82 83 85 88 91 94 96 98 98 99 99 100 100 99 98 97 97 97 98 98 99 99 99 99 99 99 100 100 101
79 79 78 78 78 78 79 79 79 79 80 80 80 80 80 80 80 80 79 77 77 77 77 78 78 78 78 77 76 76 78 78 78 78 79 81 83 85 87 90 93 95 96 98 99 99 100 100 100 100 100 100 101 102 102 102 101 101 101 101 101 102 102
74 74 74 74 74 74 75 75 76 76 77 78 79 79 79 79 79 79 79 77 76 75 75 76 77 77 76 75 74 74 74 75 75 75 76 78 80 82 84 87 89 90 92 95 96 96 97 98 99 100 100 101 102 103 104 104 104 104 103 103 104 105 105
70 69 69 70 69 69 70 71 72 72 73 75 77 77 77 76 76 76 76 76 75 73 73 75 77 76 75 73 72 71 71 72 72 72 74 76 78 80 81 83 85 86 88 90 92 92 93 94 95 97 98 99 100 102 103 104 104 105 105 105 106 106 107
67 66 66 67 66 65 66 67 67 68 69 71 73 74 74 74 74 74 74 74 73 71 72 74 75 75 73 72 70 69 69 69 70 70 72 73 75 77 79 80 82 83 84 85 87 88 88 88 89 91 92 93 95 97 99 100 101 102 102 103 104 105 106
63 63 63 63 62 62 62 63 63 63 64 66 69 70 70 70 71 72 73 73 72 71 72 73 74 73 72 71 69 68 67 67 67 68 69 71 73 74 76 77 78 79 80 80 81 82 82 82 81 81 82 84 86 88 90 92 94 95 96 98 99 101 103

ECMWFFLT1_250_spd_003.txt.gz
Wind_Speed
25 25 24 24 24 24 25 25 26 27 28 29 29 30 32 32 33 33 33 33 33 36 39 43 47 49 50 50 50 50 48 48 50 48 45 43 42 43 43 42 41 42 44 45 44 43 43 41 39 38 38 38 37 37 37 37 37 38 38 40 40 39 41
25 25 24 24 24 25 26 26 27 28 29 30 30 31 33 33 34 34 34 34 34 35 38 41 44 47 49 50 50 51 49 49 50 48 47 45 43 43 44 44 43 43 43 45 45 44 43 41 39 39 39 38 37 37 37 37 38 40 42 42 43 40 40
24 25 25 25 25 26 27 28 29 29 30 30 31 31 32 33 34 35 35 35 35 36 37 39 42 45 47 49 49 50 51 50 50 49 50 49 45 45 46 46 46 45 44 45 46 46 45 42 40 40 40 39 39 38 39 39 40 43 45 45 45 44 43
26 26 27 26 26 27 29 30 30 31 31 31 32 32 33 33 34 35 36 36 36 36 38 39 41 43 45 47 48 49 50 51 52 52 53 53 49 48 49 50 50 48 46 46 46 47 48 46 44 44 43 43 42 40 41 41 42 43 45 45 45 47 46
28 28 29 29 29 29 30 31 31 32 33 33 34 33 33 33 33 34 35 36 36 36 38 39 40 41 43 45 46 47 48 51 55 55 56 56 53 50 50 51 52 51 49 48 47 47 49 49 48 47 47 47 45 44 43 43 43 44 45 45 47 48 48
32 31 32 32 33 33 32 32 33 33 34 35 35 35 34 34 33 34 35 36 36 37 38 39 40 40 41 42 43 45 46 48 54 58 59 58 56 54 51 50 51 52 52 51 49 49 49 50 50 49 50 50 48 47 46 45 45 45 45 46 47 49 48
37 36 36 36 37 37 36 36 35 35 36 36 36 36 36 35 35 34 34 35 36 37 38 39 40 41 41 41 42 43 44 46 50 56 60 60 58 57 55 51 50 51 53 52 51 51 50 49 49 49 50 50 48 48 48 49 48 47 47 48 48 48 48
41 41 40 40 40 40 40 40 39 38 38 39 39 39 38 37 37 36 35 35 36 38 39 40 41 42 42 42 41 42 43 45 47 52 57 59 59 58 58 57 53 51 53 54 53 51 51 51 50 50 51 50 48 47 48 50 51 51 50 51 50 49 48
45 45 44 43 43 43 43 43 42 42 41 41 41 41 41 40 39 38 37 36 36 37 39 40 42 43 43 43 43 42 43 44 46 49 52 56 58 58 58 60 60 56 53 54 55 54 52 52 53 53 54 54 52 51 49 49 51 52 53 53 53 52 51
48 47 47 47 46 46 46 45 45 45 44 44 43 43 44 43 43 42 41 40 39 38 39 40 42 44 45 45 45 45 45 45 45 47 50 53 56 58 58 60 62 62 59 56 56 57 56 56 56 56 57 57 57 56 55 54 53 53 53 55 56 55 55
49 48 48 48 48 49 49 48 47 47 47 47 47 47 47 47 47 47 46 45 44 42 41 41 42 43 45 46 47 47 47 47 46 47 49 51 54 56 58 59 61 63 64 62 59 59 59 60 60 60 59 60 60 59 59 59 58 57 57 57 57 58 58
50 50 49 49 49 50 50 50 50 50 50 50 50 50 50 50 50 50 50 50 49 48 46 44 43 43 45 46 47 48 48 48 48 49 50 51 53 55 57 59 60 61 64 65 64 62 62 62 63 63 63 63 62 61 61 62 61 60 61 61 60 60 60
52 52 52 51 52 52 52 52 52 52 53 54 54 54 54 53 53 53 53 52 52 52 51 49 48 46 46 46 47 48 49 49 49 50 51 52 53 55 57 59 60 60 62 64 65 66 66 65 64 65 66 66 65 64 63 64 64 63 63 64 64 63 62
53 53 53 53 53 54 54 54 54 55 56 56 57 57 57 57 57 56 55 55 54 54 54 53 52 51 50 49 48 48 49 49 50 50 52 53 53 54 57 59 60 60 61 62 63 65 67 67 67 67 67 67 68 68 66 65 65 66 66 67 67 66 65
55 55 56 55 54 55 56 56 57 57 58 58 58 59 59 59 59 59 59 58 57 56 56 56 56 55 54 53 52 51 51 50 50 51 51 53 55 55 56 57 59 61 62 62 63 64 65 67 68 69 70 69 69 71 71 69 67 66 67 69 70 70 69
59 59 58 56 56 58 59 60 59 58 58 60 61 61 61 61 61 61 61 61 60 60 59 59 58 58 58 57 57 56 55 53 52 52 52 53 54 56 56 57 58 59 61 63 63 64 65 66 67 69 71 72 71 71 72 73 72 69 68 68 70 72 73
63 63 61 59 59 61 62 62 63 62 62 62 61 62 63 64 64 63 63 62 62 63 63 63 62 61 61 60 60 60 59 58 57 55 55 55 56 56 57 58 58 59 60 61 63 64 65 66 67 68 70 72 73 73 73 74 74 74 72 69 69 70 73
62 63 64 64 64 65 64 63 64 65 66 65 62 63 64 64 64 64 65 65 66 66 66 66 65 65 64 63 63 62 62 62 61 61 59 59 59 59 59 59 60 60 61 61 62 63 65 66 66 67 69 70 71 73 74 74 74 75 76 75 73 71 71
57 59 63 65 65 66 64 63 64 67 68 68 66 65 65 65 64 64 66 68 70 70 69 68 67 67 67 67 66 65 65 64 64 64 64 64 63 63 63 63 62 63 63 63 64 64 64 65 66 66 67 69 70 71 72 73 74 74 76 77 77 77 75
54 58 62 63 63 64 63 64 67 69 68 69 67 66 67 67 66 66 68 69 70 71 71 71 71 70 70 70 70 69 68 68 67 67 68 68 68 68 67 67 66 66 66 66 66 66 65 66 66 66 67 68 69 70 70 72 72 73 74 75 76 78 79
57 60 62 62 62 62 62 63 66 67 68 68 66 64 65 66 66 66 69 72 71 70 71 72 72 73 73 72 72 72 72 71 70 70 71 70 71 71 71 71 71 70 70 69 68 68 68 68 68 68 68 68 69 70 71 71 72 72 73 73 74 76 77
60 60 61 61 61 61 62 63 64 65 66 66 65 65 65 65 65 66 69 71 71 71 73 74 74 74 75 75 75 74 74 74 73 73 73 74 74 74 74 75 75 74 74 73 72 71 70 70 70 70 70 70 71 71 72 73 73 73 73 73 74 75 75
63 62 62 62 62 62 63 64 64 63 62 62 64 66 67 67 66 66 67 69 69 70 73 76 77 77 78 78 77 77 77 76 76 76 76 76 77 77 78 78 78 78 78 77 76 75 74 73 72 73 73 73 73 74 74 75 75 75 75 74 75 75 75
66 65 65 64 64 65 66 66 66 64 62 62 63 64 65 67 66 63 64 67 69 71 71 73 77 79 79 79 79 80 80 80 80 80 79 79 79 80 81 80 80 81 81 80 80 79 79 78 77 76 76 76 76 76 76 76 77 77 77 77 77 77 77
69 68 68 67 67 68 68 69 69 69 66 65 65 64 66 68 68 67 68 70 71 71 70 72 76 78 77 78 79 81 82 83 84 84 83 83 83 83 83 82 83 83 83 83 83 82 82 82 81 81 80 80 79 78 78 78 78 79 79 79 79 80 80
72 71 71 71 70 70 71 71 72 72 71 69 67 67 68 70 70 71 72 73 72 70 70 73 75 75 75 76 77 79 82 84 85 86 85 85 86 87 86 85 85 85 85 85 85 85 85 85 85 85 85 84 84 83 82 81 81 81 81 81 82 82 83
74 74 74 74 73 73 73 74 75 75 74 73 71 70 70 71 72 72 73 73 72 71 72 74 75 75 76 76 76 79 81 82 84 85 85 85 87 88 89 89 88 87 87 87 87 87 88 88 88 88 88 88 87 87 86 85 85 85 85 85 85 85 86
76 75 75 75 75 75 75 76 76 77 77 76 74 73 72 73 73 73 73 72 71 71 73 75 75 75 76 76 78 79 81 82 83 84 83 83 85 87 89 90 90 91 91 90 89 89 90 91 91 91 90 90 90 90 90 90 90 90 89 89 88 88 88
78 78 78 77 76 76 76 76 77 78 78 78 77 75 75 75 74 74 73 72 71 72 74 74 74 74 75 76 78 80 81 82 83 83 82 82 83 85 86 87 89 92 93 93 92 91 92 93 93 93 93 93 93 93 93 94 94 94 94 93 92 91 91
80 81 81 81 79 78 77 77 77 78 78 78 78 77 76 75 74 74 73 72 72 73 73 72 72 73 74 75 77 80 82 83 83 82 82 82 83 84 84 85 88 90 92 92 93 93 94 96 96 95 94 95 95 96 96 97 97 97 97 96 96 95 95
82 82 82 82 82 80 79 78 78 79 79 79 79 79 77 75 74 74 74 74 74 73 73 72 72 73 73 74 76 79 82 83 84 83 82 82 83 83 83 85 86 88 89 90 91 92 94 96 97 97 97 97 97 98 99 100 100 100 99 99 99 99 99
83 83 83 83 83 82 81 80 79 79 79 79 80 80 78 75 75 76 76 76 74 74 73 72 73 73 74 75 76 78 80 83 84 83 83 83 83 83 84 85 85 86 87 88 89 90 92 93 95 96 98 99 100 101 102 102 102 102 102 102 102 102 102
84 83 83 83 83 82 82 81 80 80 80 80 81 81 78 75 77 78 78 76 74 73 74 74 74 75 75 76 77 77 79 82 83 84 83 84 84 83 84 84 84 84 85 87 88 89 90 91 91 93 95 97 99 101 103 104 104 104 104 104 104 104 105
83 83 82 82 82 82 81 81 80 80 80 80 80 81 79 76 77 78 77 75 74 73 74 75 77 77 78 77 78 78 79 81 83 84 84 83 83 83 84 84 83 82 84 86 87 88 89 90 90 91 92 93 95 98 101 103 104 105 106 106 106 107 107
82 81 80 80 80 80 80 80 79 78 78 78 79 79 77 76 75 75 75 75 74 74 75 76 77 78 78 77 78 79 79 81 82 83 83 83 83 82 82 82 81 81 82 84 85 86 88 89 90 90 90 91 93 95 96 98 101 103 105 106 107 108 109
78 78 78 77 77 77 77 77 76 75 75 76 76 75 74 73 72 72 72 73 74 74 74 74 75 76 76 76 77 77 78 79 80 80 81 81 81 80 80 79 79 79 80 81 82 84 85 87 88 89 89 90 91 92 93 94 96 98 100 102 104 107 108
73 73 73 74 74 74 73 72 72 72 72 72 72 71 70 70 69 69 70 71 71 71 71 72 72 73 73 74 74 74 75 76 76 76 77 77 77 77 76 76 76 76 76 78 79 81 82 84 85 86 87 87 88 88 89 90 91 93 95 97 98 100 103

ECMWFFLT1_250_spd_006.txt.gz
Wind_Speed
27 27 27 27 27 28 29 29 29 28 27 26 26 26 27 27 28 29 30 31 32 34 36 39 41 43 44 47 50 49 48 46 45 42 41 42 40 39 41 42 39 36 37 43 44 43 41 41 42 43 44 45 45 44 44 44 44 44 44 44 45 44 42
27 27 27 27 27 28 29 29 28 27 27 26 25 25 26 26 27 28 29 31 32 32 34 36 38 40 42 45 49 52 51 50 49 46 44 44 43 40 41 43 41 37 36 39 44 45 42 42 43 44 45 46 45 45 44 43 43 44 44 44 44 44 42
29 27 27 27 27 28 28 29 28 28 27 27 27 27 28 28 28 29 29 30 31 32 33 34 35 37 39 42 46 50 52 52 52 50 46 45 44 42 42 44 43 39 38 38 42 45 45 44 45 45 46 47 46 46 45 44 44 43 43 43 42 43 42
32 30 29 28 28 28 29 28 28 28 28 28 29 29 30 30 31 31 32 32 33 33 33 33 34 35 37 39 43 47 50 52 52 52 49 47 46 43 42 45 45 42 40 41 42 44 46 46 46 46 46 46 46 45 45 45 45 43 41 41 41 41 42
36 34 32 30 29 29 30 30 29 29 29 30 31 31 31 31 31 32 32 33 35 35 36 36 36 35 35 36 39 43 46 49 51 52 51 50 49 46 44 46 47 44 43 43 45 46 46 47 47 47 47 47 45 45 45 45 44 43 41 41 40 41 42
41 38 36 34 33 31 31 32 32 32 32 32 33 33 33 33 32 32 32 33 34 36 38 39 39 39 38 37 38 40 42 46 48 50 51 51 51 50 47 47 48 48 47 45 45 48 48 47 48 48 48 48 47 46 46 45 44 43 43 42 42 41 42
44 43 40 38 37 35 34 34 34 35 35 35 35 35 35 35 35 34 34 34 35 36 37 39 41 41 41 41 40 40 41 43 46 48 50 51 52 52 50 49 50 51 52 49 46 48 51 49 49 49 49 50 49 48 48 47 46 45 45 45 44 43 43
46 46 44 43 41 40 38 37 36 37 37 37 37 36 36 37 37 37 37 37 37 37 37 38 40 41 42 43 43 42 42 42 44 46 48 50 51 53 52 51 52 53 56 55 49 47 51 54 52 51 51 51 50 51 51 50 48 48 48 48 47 45 44
47 47 46 46 45 44 43 41 40 39 39 39 39 39 39 39 39 39 39 40 40 40 39 39 40 41 42 43 44 44 44 43 44 44 46 49 50 52 52 53 53 55 58 60 56 50 50 54 57 56 54 53 52 52 52 53 53 52 51 51 50 48 47
48 48 47 47 47 46 46 46 45 44 43 42 42 42 42 42 42 42 41 42 42 42 41 41 40 41 41 42 44 45 45 45 45 45 46 48 50 51 51 52 53 55 59 62 62 57 51 51 56 60 59 58 57 55 55 54 54 54 54 53 53 52 50
50 50 49 49 49 49 48 48 48 47 47 47 46 45 45 45 45 44 44 44 44 44 44 44 43 42 42 42 43 44 46 46 46 46 47 48 50 51 51 52 52 55 58 62 65 64 58 52 52 57 61 61 60 60 59 57 56 55 54 54 54 54 53
50 50 51 51 51 51 50 50 49 49 49 50 49 49 49 48 48 48 47 47 46 46 46 46 46 46 44 43 43 43 45 47 48 48 48 48 49 50 51 52 53 54 57 61 65 66 65 60 54 54 58 62 62 61 61 60 58 57 55 54 54 54 54
51 51 51 52 52 52 52 51 52 51 51 51 51 51 51 51 51 51 50 50 49 49 48 49 49 49 49 47 46 44 44 46 48 49 50 50 50 51 51 51 53 55 56 59 63 66 67 66 61 57 56 59 61 62 61 60 60 59 58 57 56 56 56
52 50 50 50 49 51 52 53 54 54 53 54 54 54 54 54 54 53 53 53 52 52 52 52 51 52 52 51 50 49 47 46 47 48 50 51 52 52 52 52 53 54 56 58 61 64 66 67 66 63 59 58 59 62 63 62 61 60 60 60 59 59 59
53 52 52 50 48 50 52 52 52 53 54 55 57 58 58 57 57 56 56 55 55 55 55 54 54 54 53 53 53 53 52 51 49 49 49 51 52 53 54 54 54 54 56 58 60 62 64 66 67 67 65 63 61 61 63 65 65 64 63 63 62 62 62
58 58 57 55 52 52 51 51 51 52 53 55 56 59 60 60 60 59 59 59 59 58 58 58 57 56 56 56 56 56 56 56 55 53 52 52 52 53 54 55 56 56 56 58 60 61 63 65 67 68 68 68 66 64 62 65 67 68 68 66 66 65 65
63 61 60 60 59 56 54 53 53 55 57 57 59 60 60 61 61 61 61 62 62 61 60 60 60 60 59 59 59 59 58 58 58 58 57 57 56 55 55 56 57 57 57 57 59 61 63 65 65 67 68 69 70 69 67 66 66 69 71 71 70 68 68
62 60 59 59 59 58 56 51 47 50 55 56 59 62 63 63 63 64 63 63 64 63 62 62 62 63 63 62 62 61 61 60 60 60 60 60 60 59 59 58 58 58 58 58 59 60 62 65 66 67 68 69 70 71 72 72 70 69 70 72 74 73 72
61 59 57 56 54 55 57 52 44 43 46 50 53 57 59 61 62 64 66 66 65 65 64 64 64 64 64 64 64 64 64 63 63 63 63 63 63 63 63 62 62 61 60 60 60 60 61 63 66 68 69 69 70 71 72 74 74 74 72 73 74 75 76
59 59 57 56 54 54 55 55 51 46 42 43 48 51 53 56 58 61 63 65 66 66 66 66 67 68 68 67 66 66 65 66 66 65 66 66 66 66 66 65 65 65 65 64 63 63 62 63 64 66 68 70 71 72 72 73 75 76 76 76 76 76 77
58 57 56 55 54 53 53 54 56 54 48 45 46 47 48 53 59 62 62 61 63 65 65 65 66 68 69 68 68 67 66 67 68 69 69 69 69 69 68 67 67 67 68 67 67 66 66 65 65 66 67 69 70 71 73 74 75 75 76 77 78 79 79
57 57 57 55 53 52 53 53 54 58 60 57 54 48 43 46 54 59 59 58 58 59 62 64 66 68 69 69 69 69 68 68 69 70 71 72 72 72 71 70 70 70 70 70 70 70 70 69 69 69 69 69 70 70 71 72 74 75 76 77 78 79 80
58 58 58 56 54 54 54 54 55 58 62 63 60 52 47 48 53 56 58 59 60 61 62 64 66 69 72 72 71 70 70 70 70 71 72 73 73 73 74 73 73 73 74 74 73 73 73 72 72 73 73 73 72 72 72 72 73 74 74 76 77 79 80
60 60 59 57 57 57 56 57 58 60 62 63 62 59 58 60 62 64 65 65 65 66 66 65 65 68 71 73 73 72 72 72 72 72 73 74 74 75 75 76 76 77 78 78 77 76 76 76 76 76 76 76 76 75 75 75 75 75 75 75 76 77 79
62 62 62 61 60 60 60 60 60 62 64 66 68 69 70 72 72 71 69 67 66 66 67 66 66 68 70 72 73 73 73 73 73 72 72 74 76 76 76 76 77 78 80 81 80 79 79 79 79 79 79 79 79 79 78 78 78 78 78 78 78 78 78
66 66 66 65 64 65 64 64 64 65 66 68 70 72 74 76 75 73 71 68 66 65 66 66 67 69 70 71 71 72 72 72 72 72 72 73 75 76 77 78 78 79 81 83 83 83 82 82 83 83 83 83 83 82 82 81 82 82 82 81 81 81 81
69 69 69 68 68 68 68 68 69 69 69 70 71 72 74 75 75 74 71 69 67 67 68 68 69 70 71 71 72 72 72 73 72 72 73 73 73 75 76 76 78 79 82 84 85 85 85 85 86 85 85 85 85 86 85 85 85 86 86 85 85 85 85
71 71 71 71 71 71 71 71 72 72 73 73 74 74 74 75 75 74 72 70 69 71 72 72 72 72 72 73 74 75 75 75 75 76 77 77 77 77 77 77 78 79 80 82 83 85 86 87 88 88 87 87 87 88 88 89 89 89 89 89 88 88 89
72 72 72 72 72 72 72 72 73 74 75 76 76 75 75 75 75 74 73 71 72 74 75 76 75 74 73 74 75 77 77 77 78 79 80 80 80 81 82 82 82 82 81 81 82 83 85 86 88 89 89 89 90 91 91 92 92 92 92 92 92 92 92
73 73 73 73 73 73 73 73 74 74 75 76 76 76 75 74 74 73 71 71 73 76 77 78 77 76 75 76 77 78 79 79 79 80 80 80 80 81 83 84 84 84 84 84 84 85 85 86 87 87 88 90 91 93 94 95 95 95 95 95 96 96 95
74 74 74 74 74 74 75 75 75 75 75 76 76 75 74 74 72 70 69 70 74 76 78 78 77 77 77 78 78 79 80 81 81 81 80 81 81 82 83 84 85 85 86 87 87 87 87 87 88 88 88 88 90 91 93 95 97 97 98 98 98 98 99
75 75 75 75 75 75 76 77 77 77 77 76 76 75 74 73 71 69 69 71 73 75 77 77 77 78 78 78 79 79 80 81 81 81 82 83 83 84 85 85 85 85 86 88 89 90 89 89 89 89 89 88 88 90 91 93 95 97 98 100 101 101 101
76 76 76 76 77 77 78 78 79 79 78 78 77 75 74 73 72 70 70 71 72 74 76 77 78 78 79 78 78 79 80 80 81 81 82 83 84 85 85 86 86 86 87 88 90 91 91 90 90 90 90 90 90 90 91 92 93 95 97 98 100 102 103
76 76 77 78 79 79 80 80 80 80 79 79 78 77 76 75 73 72 71 70 71 73 75 76 77 78 79 79 79 79 79 80 81 81 82 82 83 84 85 86 86 87 88 89 90 91 92 92 91 90 90 91 91 92 92 93 93 95 96 97 99 100 102
76 77 78 79 80 80 81 81 81 81 80 79 79 79 77 75 73 72 72 72 73 74 74 74 75 77 78 79 79 78 79 80 80 81 81 81 82 84 85 85 85 87 88 89 90 91 92 92 92 91 91 91 92 92 93 93 94 95 95 96 97 98 100
75 75 77 79 80 80 81 81 81 80 79 78 78 78 77 74 72 71 72 73 74 74 73 73 74 75 76 77 78 78 78 79 79 80 80 81 81 82 83 84 85 85 86 87 87 88 90 90 91 91 91 91 91 92 92 92 93 94 95 95 96 97 98
71 72 74 76 77 77 78 78 78 77 75 74 75 75 73 72 70 70 70 71 72 73 72 71 72 72 73 74 76 76 77 78 78 78 78 79 80 80 81 82 82 83 83 82 83 84 86 87 88 89 90 91 90 90 90 90 91 91 92 93 94 95 96

ECMWFFLT1_250_spd_009.txt.gz
Wind_Speed
43 42 41 40 40 40 39 37 35 34 33 33 33 32 31 30 31 31 32 33 34 34 35 35 36 36 37 38 39 40 41 43 44 42 42 41 39 39 39 37 36 36 37 39 41 40 38 40 42 42 43 43 44 43 41 40 43 47 50 51 51 50 48
41 42 42 41 40 40 40 38 36 34 34 33 33 32 31 30 29 29 29 30 31 32 33 33 34 34 34 35 37 38 39 40 42 42 43 44 42 41 40 37 36 37 37 37 38 39 39 40 42 44 45 44 42 42 41 41 42 44 48 49 49 50 49
43 44 44 43 41 40 40 39 37 35 34 34 34 33 31 30 29 28 28 28 29 29 31 32 32 33 33 33 34 35 36 37 39 40 43 46 45 44 42 40 38 38 39 39 39 40 41 41 42 44 46 45 43 41 41 42 42 44 46 47 48 48 48
46 45 44 43 42 41 41 40 39 37 36 35 35 34 33 31 30 30 29 29 29 29 30 31 31 32 32 33 33 34 34 35 36 38 41 46 48 47 45 43 42 42 42 42 41 42 42 42 42 43 46 47 44 42 42 42 43 44 45 46 47 47 47
46 44 42 43 43 42 41 41 40 39 38 36 35 35 34 34 33 32 32 31 32 32 32 33 33 33 33 33 33 34 34 34 34 35 38 43 48 49 49 47 46 44 45 46 44 42 42 42 42 43 45 47 46 43 42 42 44 45 46 46 47 47 47
46 44 42 42 43 43 42 42 42 41 40 39 37 36 36 35 35 34 34 35 35 35 35 35 35 36 35 35 34 34 34 34 34 34 36 39 44 48 49 50 50 48 47 48 46 43 42 43 42 43 45 46 47 46 44 43 43 45 46 47 48 48 48
45 44 43 42 43 44 43 44 45 44 43 41 40 38 37 37 37 37 37 37 37 37 37 37 36 36 36 37 37 37 36 35 34 34 35 36 39 43 47 50 52 52 49 49 48 44 43 44 44 44 45 45 45 47 47 45 44 44 46 47 48 50 50
44 43 44 43 43 45 45 45 46 46 46 45 43 42 40 40 39 39 39 39 38 39 39 39 38 36 36 36 38 39 39 38 38 37 36 36 37 39 43 46 50 52 52 50 49 47 45 46 46 45 45 46 46 46 47 48 46 45 46 48 50 52 51
44 44 44 44 43 44 46 46 47 48 48 48 47 46 44 43 42 42 42 42 41 41 41 41 40 39 38 37 37 38 39 40 41 41 40 40 39 39 40 43 46 49 51 51 50 49 48 47 49 49 47 46 47 47 47 48 49 47 46 48 51 52 51
43 43 44 44 44 45 47 47 47 48 49 49 49 49 48 46 46 45 45 45 44 44 43 42 42 42 41 40 40 39 39 40 41 42 43 43 42 42 41 42 43 46 49 50 50 50 50 50 50 52 51 48 47 48 49 48 49 50 49 50 51 52 52
45 46 46 46 47 49 49 48 47 48 49 50 51 50 50 49 49 48 48 47 47 46 46 45 44 43 43 42 42 41 41 41 41 42 43 44 44 44 44 44 44 44 46 48 48 49 50 51 52 53 55 54 50 48 49 50 50 50 51 52 53 54 53
51 51 50 48 49 51 49 46 47 49 49 49 51 52 52 52 51 51 51 50 50 49 48 48 47 46 45 44 43 43 43 43 43 43 44 44 45 45 45 46 45 45 46 47 48 48 49 51 52 53 55 57 55 51 49 51 53 52 53 54 56 56 56
58 58 56 53 52 51 48 45 46 49 50 51 52 52 53 54 54 53 53 52 52 51 50 50 50 49 48 47 46 45 45 45 45 45 45 45 46 46 46 46 47 47 47 48 48 49 50 50 52 53 55 57 58 56 52 51 53 54 55 56 57 58 58
64 66 65 62 59 55 51 47 47 49 52 54 54 54 56 57 57 56 55 54 53 53 52 52 52 52 51 50 50 49 48 47 47 47 47 47 47 47 47 47 48 49 49 50 50 50 51 52 52 53 54 56 58 59 57 54 53 55 56 57 59 60 61
65 70 70 68 65 62 58 56 56 55 57 58 58 59 59 58 58 57 57 56 55 54 54 53 54 54 53 53 52 52 51 50 50 50 50 50 50 50 49 48 48 49 50 51 52 52 53 54 54 55 55 56 57 59 59 57 55 55 56 58 59 61 63
66 69 71 70 68 68 67 66 64 62 62 62 61 60 58 56 57 57 57 57 57 57 57 56 56 55 55 55 54 54 54 53 53 52 52 53 53 53 53 52 51 50 51 52 53 54 54 55 56 57 57 57 58 59 60 60 58 57 57 58 60 62 64
68 68 69 69 69 68 67 66 64 63 64 65 63 61 60 59 58 57 57 58 58 58 58 58 58 58 57 57 57 56 56 56 56 55 55 55 55 56 56 56 55 54 53 53 53 55 56 56 57 58 59 59 60 60 61 62 61 60 59 59 60 62 64
67 68 68 69 70 69 68 67 66 66 67 67 66 65 65 65 63 61 61 62 61 60 59 59 59 59 59 60 60 59 58 58 58 58 58 57 58 58 58 58 58 58 57 56 56 56 56 57 58 59 60 60 61 62 63 63 64 63 62 61 61 62 63
63 67 69 71 72 71 70 69 68 67 68 70 70 69 69 69 68 67 67 67 66 65 64 63 62 61 61 60 60 60 60 60 60 60 60 60 60 60 60 60 60 60 60 60 60 60 59 59 59 60 61 61 62 62 63 64 65 66 66 65 64 64 64
50 55 63 66 67 67 66 65 65 64 64 65 66 67 67 66 66 67 68 70 71 70 68 67 66 65 64 62 61 61 61 62 62 62 62 62 62 62 62 62 62 62 62 62 63 63 63 63 63 62 62 63 63 63 63 64 65 66 67 68 67 67 66
43 48 55 59 60 62 62 61 61 60 57 55 56 59 61 62 62 63 65 67 69 69 68 67 67 67 66 65 64 64 64 64 64 64 64 64 64 64 64 63 63 64 64 64 65 66 66 66 66 66 66 65 65 65 65 65 65 66 67 68 69 69 69
53 56 58 59 59 59 59 59 59 58 56 55 57 59 60 60 60 61 63 64 66 66 66 66 66 67 67 66 65 64 65 66 67 66 66 66 65 65 66 65 65 65 66 66 67 68 68 68 69 69 69 69 69 68 68 68 67 67 67 68 70 70 71
61 62 62 61 59 59 59 59 59 59 59 60 60 61 59 59 59 60 61 63 64 65 65 66 67 67 67 66 64 63 64 65 65 64 64 64 65 65 66 67 67 68 68 68 68 69 70 71 71 71 71 72 72 72 72 72 71 70 70 70 70 71 71
60 60 60 60 59 59 59 59 59 60 60 60 60 59 58 59 59 60 60 61 63 63 64 65 67 66 66 64 63 64 64 61 60 59 58 59 61 63 65 65 66 68 69 69 68 69 71 72 73 73 74 74 75 75 75 75 75 75 74 73 73 73 73
58 59 59 59 60 60 60 60 60 60 60 60 60 59 59 60 60 60 61 60 61 62 63 65 66 66 66 65 63 63 62 58 57 57 58 60 62 64 65 66 66 67 69 70 69 70 71 73 74 74 76 77 77 78 78 78 78 78 78 77 77 77 76
58 59 60 61 61 62 62 62 62 62 62 62 62 61 61 61 61 61 61 60 61 63 64 66 67 66 66 66 64 63 62 61 61 62 64 66 67 68 69 69 69 69 70 71 71 72 73 74 75 76 77 78 79 80 80 80 81 80 80 80 80 81 81
59 60 61 62 63 64 64 65 65 65 65 65 65 64 63 63 62 62 61 61 63 65 67 68 69 68 68 68 66 66 65 66 67 69 70 72 73 73 73 73 73 72 72 72 73 74 74 75 76 77 78 79 80 81 82 82 83 82 82 82 82 83 84
61 62 62 63 64 65 66 66 67 67 68 68 68 67 67 66 65 63 62 63 66 69 70 71 71 72 73 73 73 73 72 72 73 74 74 75 76 76 76 76 76 76 76 75 75 75 75 76 77 77 78 80 81 82 83 84 84 84 84 84 85 85 86
64 64 65 65 66 67 67 68 69 69 69 70 70 70 69 68 67 65 64 66 69 71 73 73 74 75 76 76 77 78 78 79 79 79 78 78 77 77 77 78 79 79 79 79 79 78 78 78 78 78 79 80 81 82 83 84 85 85 85 86 87 87 88
66 66 67 67 68 68 69 70 70 70 71 71 71 71 71 70 68 67 67 69 71 73 74 75 76 77 77 78 79 80 80 81 81 81 81 81 81 80 79 79 79 80 81 82 83 82 81 81 81 81 81 81 82 83 84 84 84 85 86 87 88 90 90
69 69 70 70 70 70 71 72 72 72 72 72 73 73 72 71 68 68 69 71 73 74 75 76 77 77 78 78 80 81 81 81 81 82 82 83 84 84 83 82 81 82 82 83 84 85 85 85 84 83 83 84 84 85 85 86 86 86 86 87 88 90 92
70 71 72 72 73 73 73 73 73 73 73 73 73 73 72 70 69 69 70 72 73 74 75 76 77 77 78 79 80 81 82 82 82 82 83 84 85 85 85 85 85 85 85 86 86 87 88 88 88 87 87 87 87 87 88 88 88 89 89 89 90 91 92
72 72 73 74 74 75 75 75 75 74 74 74 73 73 72 70 70 70 71 72 73 74 76 77 77 77 78 78 79 81 82 83 83 83 84 84 85 85 85 86 86 87 88 89 89 90 90 91 91 92 92 90 90 90 90 90 90 90 91 91 92 93 93
74 74 74 74 75 76 76 77 76 76 75 75 73 72 72 71 70 69 70 71 73 74 75 76 76 76 77 78 79 80 81 82 83 83 84 84 85 85 85 86 87 88 89 90 90 91 91 92 93 94 94 93 93 93 92 92 92 91 91 91 92 92 93
75 75 74 74 74 75 76 77 77 76 76 75 74 73 72 71 70 69 69 70 72 74 75 75 75 75 75 76 78 79 80 81 82 82 83 83 84 84 84 85 86 87 88 89 90 90 91 92 93 94 94 94 95 94 94 94 94 94 94 93 93 93 93
76 75 74 74 73 73 74 76 76 76 75 74 73 72 71 70 69 69 69 71 72 74 74 74 73 73 74 75 76 77 78 79 79 80 81 81 82 82 82 83 84 85 86 86 86 87 88 89 90 91 92 93 93 93 93 94 94 95 95 95 95 95 94
75 75 74 73 72 71 72 74 74 75 74 73 72 70 69 67 67 68 69 71 72 73 72 72 72 72 73 73 74 76 77 77 77 77 77 78 79 79 80 81 82 83 83 83 82 82 83 83 85 86 87 88 89 89 90 91 92 92 93 93 94 94 94

ECMWFFLT1_250_spd_012.txt.gz
Wind_Speed
31 28 27 27 30 33 35 35 35 35 36 36 36 36 34 31 30 30 29 29 29 29 29 30 31 31 31 31 32 32 32 32 33 34 34 35 37 38 38 40 41 40 39 37 36 36 37 39 40 39 38 36 36 37 39 39 39 37 36 35 36 41 48
33 29 27 27 30 34 37 38 38 37 36 37 37 37 35 33 31 30 30 29 29 29 29 29 30 30 30 30 31 31 31 30 31 31 32 34 35 37 38 39 40 41 39 38 36 35 35 37 39 40 39 37 36 36 37 38 39 40 39 38 37 39 44
36 34 32 31 31 34 37 38 38 37 35 35 36 37 36 35 33 31 30 30 29 30 30 30 30 30 30 29 29 30 30 30 30 30 30 32 33 35 36 38 40 41 41 39 37 35 35 36 38 40 41 40 39 38 38 37 38 40 42 43 42 40 41
41 39 38 36 35 37 37 36 36 36 36 35 35 36 37 36 35 33 32 31 30 30 30 31 31 31 30 29 29 28 28 29 29 29 29 30 31 33 34 36 38 41 43 42 39 37 36 37 38 39 41 41 42 42 40 38 38 40 44 46 45 43 42
45 43 42 40 41 41 39 38 37 36 36 35 35 36 37 37 37 35 34 33 32 31 31 32 32 32 31 30 29 29 29 29 29 30 29 29 30 31 32 34 36 41 44 44 42 40 39 38 39 40 40 41 41 42 42 40 39 41 45 46 44 44 44
49 47 47 46 45 43 41 40 38 37 36 35 36 37 38 38 38 37 36 35 34 33 33 33 33 33 33 33 32 31 31 31 31 31 31 30 30 30 31 32 34 38 43 45 45 43 42 40 40 41 41 41 41 42 42 41 40 42 45 46 45 43 43
51 52 51 50 47 44 43 42 41 40 38 38 38 38 38 38 38 38 38 37 37 36 35 34 34 35 35 35 35 35 35 35 34 34 33 32 31 31 31 32 33 36 40 44 46 46 45 43 43 43 43 43 43 44 44 43 42 43 46 47 47 45 43
50 50 49 47 45 43 43 43 43 42 42 41 41 39 37 37 38 39 39 39 39 39 38 37 36 37 37 37 37 37 37 38 38 37 36 34 33 32 32 32 33 34 36 40 44 47 48 47 46 46 46 46 45 44 45 45 45 45 46 48 49 48 46
47 46 45 45 45 44 44 45 45 44 44 43 43 41 38 37 37 39 40 40 41 41 41 41 40 39 39 39 39 39 39 39 39 39 38 37 36 34 33 33 33 34 35 37 40 43 47 50 50 49 49 49 48 45 44 46 47 47 47 49 51 51 49
48 45 45 46 46 45 45 47 47 47 47 46 46 44 42 40 40 40 41 41 41 42 43 44 44 43 43 42 42 42 41 41 41 41 40 39 38 37 36 35 35 35 36 36 38 40 43 48 51 51 51 51 52 49 45 45 48 49 49 50 51 53 51
51 49 49 49 49 48 47 48 48 48 48 50 51 50 48 46 44 43 42 41 42 43 44 45 46 46 46 46 45 45 45 44 44 43 43 42 40 39 38 38 38 38 38 38 38 39 41 44 48 50 52 52 52 52 49 47 48 50 51 51 52 52 52
54 54 54 54 53 52 50 48 49 49 49 51 54 55 54 51 48 45 44 43 43 43 44 45 46 47 48 49 49 48 48 48 47 46 45 45 44 43 42 41 41 40 40 40 40 40 41 42 44 47 49 51 52 52 52 51 50 50 51 53 53 53 53
57 57 58 58 58 57 54 50 50 51 52 53 54 55 54 52 50 48 47 46 44 43 44 45 46 47 48 49 50 51 51 51 51 50 48 47 47 46 45 44 43 43 43 43 42 42 42 42 43 44 46 48 50 51 52 53 53 53 52 53 54 55 55
57 58 59 60 61 62 59 56 53 54 54 55 57 57 57 57 55 53 52 51 48 46 46 47 47 47 48 49 51 52 53 54 54 53 52 50 49 49 48 47 46 45 45 45 45 45 44 44 44 44 45 46 48 49 50 52 54 55 55 55 55 56 56
58 59 60 61 62 64 64 63 61 60 59 59 59 61 63 64 63 61 59 58 56 54 53 53 53 52 52 52 54 54 55 55 55 55 55 54 53 52 51 50 49 48 47 47 47 47 47 46 46 46 46 47 47 48 49 51 52 55 56 57 57 57 57
56 57 56 56 58 59 60 61 63 64 63 62 61 63 65 66 66 66 65 64 64 63 63 63 62 60 58 57 56 55 55 56 56 56 56 56 56 55 54 53 53 52 51 50 50 50 50 49 48 48 47 48 48 49 50 50 52 53 55 57 58 58 58
51 50 50 52 52 50 51 54 57 60 62 62 62 63 65 66 67 67 68 68 67 67 67 67 65 63 62 60 57 55 54 55 56 57 57 58 57 57 57 57 56 55 55 54 53 53 53 52 52 51 50 50 50 50 51 52 52 53 54 56 58 59 60
48 45 42 41 42 42 43 47 49 51 53 56 59 62 65 67 67 67 68 68 68 68 67 66 64 63 63 62 60 58 56 55 55 56 57 58 59 59 59 59 59 58 58 57 57 56 56 56 55 55 54 54 53 53 53 53 54 55 55 56 57 58 60
45 45 41 37 36 35 34 38 43 44 46 50 53 57 60 65 67 67 68 68 69 69 69 68 67 67 67 66 64 63 61 58 58 57 57 58 59 60 60 60 61 60 60 60 60 60 59 59 59 58 58 57 57 56 56 56 56 56 57 58 58 59 60
41 42 45 45 41 36 31 31 34 40 44 48 50 52 54 58 63 66 67 69 70 71 71 71 70 69 69 69 68 67 66 64 63 63 62 61 60 60 60 61 62 62 63 63 63 63 63 62 62 61 61 60 60 60 60 59 59 59 59 59 60 61 61
41 42 47 49 46 41 36 31 30 33 37 41 46 50 50 51 55 58 61 64 67 70 70 70 70 68 67 67 67 68 69 69 68 68 68 67 66 65 65 64 64 64 65 65 65 65 66 65 65 64 64 64 63 63 63 63 62 63 63 62 62 62 63
48 50 52 53 52 51 48 44 42 41 38 37 44 49 50 50 51 52 55 58 61 64 66 67 67 65 64 63 64 65 66 67 68 68 68 68 69 70 69 68 67 66 66 66 66 66 67 67 67 67 67 67 67 67 66 66 65 65 66 66 65 65 65
54 54 56 59 62 64 62 60 57 54 50 49 51 53 54 56 56 57 58 60 60 61 63 65 66 65 65 64 64 64 64 64 64 65 64 64 66 68 69 68 67 67 66 67 67 68 68 69 69 69 70 70 70 70 70 69 69 68 68 68 68 68 68
59 58 58 61 64 66 67 67 65 64 64 65 65 63 63 64 64 64 66 66 65 63 63 65 66 66 66 66 66 66 65 65 64 64 63 62 63 65 66 67 67 67 67 67 67 68 69 71 72 72 73 73 73 73 72 72 71 71 71 71 71 71 71
63 63 63 64 65 66 67 68 68 68 69 72 74 73 73 72 71 71 71 70 68 66 65 65 65 66 66 65 66 66 67 67 67 66 65 64 64 64 65 65 66 67 68 68 68 68 69 71 73 74 75 75 75 75 75 74 73 73 73 73 74 74 74
64 65 66 67 68 69 70 70 71 72 72 74 77 78 78 76 75 74 73 71 69 68 67 67 66 66 67 67 67 67 68 69 69 69 68 67 66 66 66 66 66 67 68 68 68 69 70 71 73 74 75 75 75 76 75 75 75 75 75 75 76 77 77
65 66 67 67 68 69 70 70 71 71 72 73 75 77 77 77 76 74 72 71 71 70 70 70 69 68 68 69 69 69 70 70 71 71 71 71 70 70 69 68 68 67 67 67 67 68 70 73 74 74 74 74 74 74 74 75 76 76 76 76 77 78 79
66 67 67 68 68 68 68 69 69 69 70 71 72 73 74 74 73 72 72 72 72 73 73 72 71 71 71 71 71 71 72 72 71 72 72 73 73 73 72 72 71 70 69 68 67 68 70 73 74 73 73 73 72 73 73 74 75 75 76 76 77 78 79
66 67 68 68 68 68 68 68 68 68 69 70 70 71 72 73 73 73 73 74 74 75 75 75 75 74 74 74 74 74 74 74 74 74 74 75 75 75 75 75 75 74 73 72 71 71 72 74 75 75 75 75 75 76 76 77 76 76 77 77 78 78 79
65 66 66 67 67 68 68 68 68 69 69 70 71 71 72 73 73 74 75 75 76 76 76 76 77 77 77 77 77 77 77 77 77 77 77 77 78 78 78 78 78 77 77 77 77 77 76 76 77 78 79 80 80 81 81 81 81 80 80 80 79 79 80
64 64 65 66 67 67 68 68 69 69 70 71 71 72 72 72 73 74 75 75 76 77 77 77 78 78 78 78 78 79 79 80 80 80 80 81 81 80 80 81 81 80 80 80 81 81 81 81 81 82 83 84 84 85 86 86 85 84 83 82 82 81 81
65 66 66 67 68 68 69 69 70 70 71 72 72 72 72 73 74 74 75 75 76 76 77 77 78 78 79 79 79 80 80 81 81 82 82 83 83 83 83 83 83 83 83 83 83 84 84 85 85 86 87 88 89 90 90 90 90 89 87 86 84 83 82
67 68 69 70 70 70 71 71 72 72 73 73 74 74 73 73 74 74 75 76 77 77 77 77 77 78 78 78 79 79 80 81 82 83 84 84 84 84 85 85 85 85 85 85 85 86 86 87 88 89 90 91 92 92 93 93 93 93 92 91 90 88 86
69 71 72 73 73 73 73 74 74 74 74 74 74 74 74 74 74 74 75 76 77 76 76 76 76 76 77 77 78 79 79 81 82 83 84 84 84 85 85 86 86 86 86 87 87 87 88 89 89 91 92 92 93 93 93 94 94 94 94 94 94 93 92
72 73 74 75 76 76 76 75 75 75 75 76 75 75 75 75 74 75 75 76 76 76 75 75 75 75 75 76 76 77 78 80 81 82 83 83 83 84 85 85 86 86 87 87 87 88 89 90 91 92 92 93 93 93 93 93 93 93 93 93 93 93 94
75 76 77 77 78 77 76 76 76 77 77 76 76 75 75 75 75 75 75 75 75 75 74 74 73 73 73 74 74 75 77 78 79 80 81 81 81 82 83 83 84 85 85 86 87 88 89 90 91 91 91 92 92 92 92 92 92 91 91 91 91 91 91
77 78 78 78 77 77 76 76 77 78 78 78 77 76 75 75 74 75 75 75 75 74 73 72 71 71 71 71 72 73 74 75 76 77 78 78 78 79 80 81 81 82 83 84 86 87 88 88 89 89 89 90 90 90 90 90 89 89 88 88 88 88 88

ECMWFFLT1_250_spd_015.txt.gz
Wind_Speed
49 49 47 45 44 43 43 42 41 38 34 31 29 29 29 30 30 29 29 30 31 32 31 31 30 28 27 26 26 26 27 27 26 25 23 22 24 27 29 29 29 29 29 29 28 30 33 34 35 34 34 35 37 38 39 39 38 38 39 40 41 42 43
50 49 47 44 42 42 41 40 38 35 32 29 28 28 28 29 29 29 29 30 30 30 31 30 29 28 26 26 26 26 27 27 26 25 24 24 24 25 25 25 26 27 28 29 29 30 32 35 36 36 35 35 36 38 39 39 38 38 39 40 40 40 40
50 48 46 44 42 42 41 39 38 35 32 31 30 29 28 28 28 29 29 30 30 31 31 30 29 28 27 25 25 26 26 27 26 25 24 24 24 24 25 24 24 25 26 28 29 31 33 36 37 37 36 36 37 38 40 40 39 39 39 39 39 39 39
50 48 46 45 43 43 42 41 39 38 36 35 34 33 31 31 30 30 30 30 31 31 32 31 31 29 28 26 25 25 26 26 26 25 24 24 24 25 25 25 25 25 25 27 29 31 33 36 38 38 38 37 37 39 41 41 41 40 40 39 38 38 37
49 48 47 45 44 44 43 43 42 42 41 39 39 38 36 34 33 32 32 32 33 33 33 33 32 31 30 29 28 26 25 26 26 26 25 25 24 25 25 26 26 26 26 27 28 30 33 36 39 39 39 38 37 39 41 43 43 42 41 40 39 37 36
42 42 43 43 43 44 44 44 44 44 44 44 43 42 41 39 37 35 34 34 34 34 34 33 33 32 32 32 31 29 28 27 27 27 27 27 26 26 25 26 26 27 27 28 28 29 31 35 39 41 40 39 38 39 41 43 44 43 43 42 41 39 37
38 37 37 37 39 42 44 45 46 46 46 46 46 46 45 44 41 39 37 36 36 35 34 33 33 33 34 34 34 33 31 29 29 29 29 29 29 28 28 27 27 27 27 28 29 29 30 33 37 41 42 41 40 40 41 42 43 44 43 43 42 42 40
42 40 38 36 35 37 40 43 45 47 47 47 47 48 48 46 44 43 41 39 38 37 35 33 33 34 35 36 36 35 34 33 32 31 31 32 32 31 30 30 29 29 28 28 28 29 30 32 34 39 42 44 43 42 42 43 43 44 44 43 43 43 43
46 45 43 41 38 36 37 39 41 44 46 47 48 49 49 48 46 44 43 42 40 39 38 36 35 36 36 37 37 37 36 36 35 34 34 33 33 33 33 32 32 32 31 29 28 29 30 31 33 35 39 43 45 44 44 44 45 44 44 44 44 44 44
49 49 48 47 44 41 39 39 39 41 43 44 46 47 47 46 45 44 43 42 41 41 40 40 39 39 38 37 37 37 37 37 37 37 37 36 36 35 35 34 34 34 34 34 32 30 29 30 32 33 35 40 44 46 46 47 47 46 46 45 46 46 46
52 52 52 50 48 46 43 42 41 41 42 43 44 45 45 45 45 45 44 44 43 42 42 42 42 42 40 38 37 37 37 38 38 38 38 39 38 38 38 37 37 37 37 37 36 35 32 31 32 33 34 36 40 44 46 48 49 49 48 48 47 47 48
51 52 52 52 51 48 47 46 44 44 45 46 46 47 48 48 48 47 46 45 45 44 43 43 43 43 42 39 37 37 38 38 38 37 38 39 40 40 40 40 40 40 40 40 40 39 38 36 34 34 34 35 37 40 44 47 49 50 51 51 50 50 49
50 51 50 52 52 50 50 50 49 49 49 49 50 50 50 50 49 48 48 47 47 47 46 46 46 46 45 43 41 40 39 39 38 37 37 37 39 41 42 43 43 43 43 43 42 42 42 41 39 37 36 36 37 38 40 43 46 49 51 52 53 53 53
50 51 51 52 53 51 50 50 50 50 51 52 52 52 52 53 52 52 51 50 50 50 50 50 50 50 49 49 48 46 45 44 43 42 40 40 41 42 43 44 45 46 46 46 45 45 44 44 43 42 41 40 39 39 39 41 43 46 48 51 53 55 56
53 52 52 54 55 53 51 51 52 54 54 54 54 54 54 55 56 56 56 55 55 55 55 55 55 55 54 54 53 52 51 50 50 49 49 49 49 48 48 48 47 48 49 49 48 48 48 47 46 45 45 44 44 43 42 42 42 44 46 48 50 52 55
52 51 53 54 55 55 54 55 56 57 57 56 55 55 56 57 57 58 58 58 58 58 58 59 59 58 58 58 57 57 56 54 53 53 54 54 54 53 52 51 50 49 50 51 51 50 50 50 50 49 48 48 48 47 46 45 45 44 45 46 48 50 52
52 52 53 54 55 55 55 55 56 56 56 56 55 56 57 58 58 58 58 58 57 58 58 59 60 60 60 60 60 59 58 57 56 54 54 54 54 53 52 50 50 49 49 50 51 52 52 52 52 52 52 52 51 51 50 50 49 48 48 48 48 50 51
52 53 53 54 54 54 54 54 55 54 54 53 53 54 56 56 57 58 59 59 58 57 56 56 56 57 59 60 60 60 59 58 58 56 55 55 54 53 52 51 51 51 50 50 51 52 52 53 53 53 54 54 54 55 54 54 54 53 52 51 51 51 51
50 51 52 52 53 54 54 53 52 50 49 48 48 51 53 54 55 56 58 59 57 55 53 53 53 53 54 56 56 57 58 58 58 58 57 57 56 55 55 55 55 55 54 54 54 52 52 52 53 54 55 56 56 57 57 58 57 57 57 56 55 54 54
49 50 51 52 52 52 50 49 46 42 42 44 45 48 51 52 54 57 60 59 55 53 50 49 50 51 50 51 51 52 54 54 55 56 57 57 57 57 57 57 58 58 57 58 58 57 55 54 53 54 56 57 58 59 59 60 60 60 60 60 60 59 58
48 48 49 50 48 44 43 44 42 39 39 41 42 45 47 48 48 50 53 53 50 51 51 48 48 48 46 45 44 44 46 48 50 52 54 55 56 56 56 56 56 57 58 60 60 60 60 59 58 58 58 58 59 60 61 61 62 63 63 63 63 63 63
47 45 45 46 43 40 39 41 42 41 41 41 42 46 48 47 45 43 44 45 43 45 48 47 45 46 45 43 42 42 44 47 49 51 54 56 57 56 56 56 55 55 57 59 60 62 63 64 64 64 63 62 62 62 63 63 63 64 65 66 66 67 66
48 45 45 46 46 45 43 43 44 44 44 44 43 46 48 48 48 46 45 46 44 43 45 48 48 51 53 53 52 52 53 54 55 56 58 60 61 60 60 59 58 57 57 57 59 61 63 65 67 67 67 67 67 68 68 67 66 66 67 68 69 69 69
51 49 49 50 52 52 51 50 50 50 49 46 44 47 50 49 51 52 51 51 50 50 53 57 59 60 61 61 61 61 62 62 62 63 64 65 66 65 64 63 62 61 60 59 59 60 63 65 67 68 69 69 70 71 72 71 70 69 69 70 71 71 71
55 54 54 55 57 58 59 58 57 56 54 50 48 52 54 54 54 56 56 56 57 59 62 65 66 65 64 65 66 67 69 70 70 70 70 70 71 70 69 67 66 65 64 62 61 61 62 64 65 67 68 70 72 72 72 72 72 72 72 72 72 73 73
58 57 58 59 61 63 65 65 64 64 62 59 59 60 62 62 62 61 60 62 64 66 67 68 68 67 68 70 71 72 74 75 76 76 76 75 75 74 73 71 70 69 67 66 64 63 62 63 64 66 68 70 72 72 72 71 72 73 73 73 74 75 75
60 61 61 62 63 64 67 69 69 69 68 68 68 69 70 71 71 69 68 69 71 71 72 71 71 72 73 75 76 77 78 79 80 81 81 80 78 76 75 74 74 73 72 70 68 66 65 65 65 66 67 69 71 71 71 71 72 73 74 75 76 77 77
61 63 63 63 64 65 67 70 72 73 73 73 74 74 76 76 75 76 76 77 77 77 77 76 76 77 77 79 80 81 82 83 83 83 83 82 79 77 76 76 76 76 75 75 73 72 70 69 68 68 69 70 71 71 71 71 72 73 74 75 76 78 79
60 62 63 65 65 66 67 69 72 75 77 78 78 78 78 78 78 79 80 81 81 81 80 80 80 81 81 82 83 83 83 83 83 82 81 80 79 78 77 77 77 78 78 78 78 77 76 74 73 72 72 72 72 72 72 72 73 74 74 74 75 77 78
60 61 63 65 66 68 69 70 71 73 76 77 78 79 80 81 82 82 82 83 84 84 84 83 82 82 82 82 82 81 81 80 80 80 80 80 80 80 80 80 80 80 80 80 81 81 81 80 79 78 77 76 76 75 75 75 75 76 76 76 76 76 76
60 61 62 65 67 68 70 72 73 73 75 76 77 78 80 81 82 83 84 84 84 83 83 81 81 80 80 80 80 80 80 80 80 80 80 81 81 81 82 82 82 82 82 83 83 83 84 84 83 83 82 82 81 80 79 79 79 79 79 79 78 77 77
60 61 62 64 66 68 70 72 73 73 74 75 75 76 78 79 81 81 82 82 82 81 81 80 80 79 79 79 80 80 81 81 81 82 82 83 83 83 83 84 84 84 84 85 85 86 86 86 86 86 86 85 85 85 84 84 83 83 82 82 81 81 80
60 61 62 63 65 68 70 72 72 72 73 73 74 75 76 77 79 80 81 81 81 80 80 80 80 80 80 80 81 81 82 82 83 83 84 84 84 85 85 85 85 85 85 86 86 87 87 88 88 88 88 88 87 87 87 87 87 87 87 86 85 84 84
61 61 62 64 65 67 69 71 71 71 71 71 71 72 73 75 77 79 80 81 81 81 81 80 80 81 81 81 82 83 83 84 84 84 84 84 85 85 85 85 85 85 85 86 86 87 87 87 88 88 89 89 89 89 89 89 89 89 89 89 89 88 87
64 63 64 66 67 68 69 70 70 70 70 70 70 71 72 74 77 79 81 81 82 82 82 81 81 82 82 82 83 84 84 84 84 84 85 85 85 85 85 85 85 85 85 85 85 85 85 86 86 87 87 88 89 89 89 89 89 89 89 89 89 89 89
67 67 67 68 70 71 71 71 71 71 71 71 71 72 73 75 77 80 81 82 83 83 83 83 83 83 84 84 84 84 84 84 84 84 85 85 85 85 84 84 83 83 83 82 82 82 82 82 83 84 85 86 87 88 88 88 88 88 88 88 88 88 88
71 70 70 71 72 74 75 75 74 74 73 73 74 74 76 77 79 81 82 83 83 83 84 85 85 85 85 85 85 84 83 83 84 84 85 84 84 83 82 82 81 80 79 79 78 78 78 78 79 80 81 82 83 84 85 85 86 86 86 86 87 87 87

ECMWFFLT1_250_spd_021.txt.gz
Wind_Speed
34 34 34 34 34 34 34 35 35 35 35 35 35 34 34 33 32 31 30 29 29 29 29 29 29 30 30 30 29 27 25 23 22 21 21 23 24 25 26 28 30 32 32 32 33 33 33 32 30 28 27 28 28 28 29 30 31 33 35 38 40 42 44
36 36 36 36 35 34 34 34 34 34 35 36 36 36 35 35 34 32 31 30 29 30 30 30 29 28 28 27 26 26 24 22 21 20 20 22 23 24 25 25 26 27 28 29 30 31 30 29 27 27 28 28 27 27 27 28 30 32 34 35 36 37 38
36 37 37 36 36 35 35 35 35 35 35 36 36 36 35 35 34 34 33 31 31 31 32 32 31 29 27 26 25 24 23 21 21 20 21 21 23 24 25 25 24 25 25 26 27 28 28 27 27 27 27 26 25 25 26 27 29 31 33 33 34 34 34
34 34 34 34 34 34 34 35 35 35 35 35 35 35 35 35 35 35 34 34 33 33 33 34 34 32 29 27 25 24 24 23 23 23 22 23 23 24 25 25 25 25 25 25 26 26 27 27 27 26 25 24 24 23 24 26 28 30 32 33 33 33 33
32 32 32 31 31 32 32 33 33 33 32 31 31 31 32 33 34 35 35 35 35 35 35 36 36 36 34 31 29 29 28 27 26 25 25 24 24 24 24 25 25 25 25 25 25 25 25 25 25 25 24 23 23 23 23 24 27 30 31 33 33 33 33
32 32 32 32 31 31 32 33 33 32 31 30 29 29 29 30 31 32 33 34 36 37 37 38 38 39 39 37 36 35 34 33 31 29 28 27 26 25 25 24 25 26 26 26 26 25 26 26 25 25 24 24 24 24 23 23 26 29 32 33 34 34 33
33 34 34 34 33 32 33 34 34 34 32 31 30 29 29 30 30 31 31 32 34 36 37 39 39 40 41 41 41 40 39 38 36 34 31 30 29 28 27 26 26 26 26 27 27 27 27 27 28 27 26 25 24 24 24 24 25 27 30 33 35 35 35
34 34 36 36 35 34 34 34 35 35 34 33 32 31 30 30 31 31 31 31 31 32 34 37 38 40 41 41 41 41 40 39 38 36 34 33 32 31 31 30 30 29 28 29 29 29 29 29 29 29 28 27 26 25 25 25 25 26 28 32 35 37 37
37 36 36 37 37 36 35 35 36 37 37 35 34 33 32 32 32 33 34 33 32 31 32 33 35 37 38 39 40 40 39 39 38 37 36 35 34 33 33 33 33 33 32 31 31 31 31 31 30 30 29 29 28 27 26 26 26 27 27 29 33 37 39
40 38 38 39 39 39 38 38 38 39 40 38 37 36 36 35 34 34 34 35 35 35 34 34 34 35 36 37 38 39 40 39 39 38 38 37 36 35 34 34 35 35 34 32 31 31 31 32 32 32 31 31 30 29 28 28 28 28 28 29 30 33 37
43 42 41 41 42 42 42 42 41 42 42 41 41 41 40 40 39 38 37 36 37 38 38 37 37 37 38 38 39 39 40 40 40 40 39 38 37 37 36 36 36 36 35 33 32 31 31 31 32 32 33 33 32 32 31 30 29 29 30 30 30 31 34
45 45 45 45 44 45 46 47 45 45 45 44 44 44 44 44 44 44 43 42 41 41 41 41 41 41 41 40 40 41 41 41 41 41 40 39 39 38 38 38 37 37 36 35 34 33 32 31 31 31 33 34 34 34 33 33 32 32 32 32 32 32 33
45 46 48 49 48 48 50 51 50 49 49 48 47 47 46 47 48 48 48 46 45 44 44 44 44 44 44 44 44 43 43 43 43 42 42 42 41 40 40 40 39 39 38 37 36 35 35 34 33 32 32 34 34 34 34 34 34 34 34 34 34 34 34
46 47 49 50 51 51 53 54 53 52 51 50 50 49 49 50 51 51 51 50 49 47 46 46 45 45 46 47 47 47 46 46 45 45 44 44 43 42 42 41 41 41 41 40 40 39 39 38 37 36 35 35 35 34 34 35 35 36 37 37 37 37 36
48 49 49 50 51 52 54 56 55 53 52 52 52 52 52 53 54 53 53 52 51 50 49 48 48 48 48 49 50 50 49 48 48 47 46 45 45 44 44 43 43 43 43 43 44 44 44 43 42 41 41 40 40 40 40 40 40 40 40 39 40 40 40
52 51 51 51 52 53 55 56 55 55 54 55 55 55 55 55 55 55 54 53 52 51 51 51 52 52 52 52 52 51 51 50 49 49 48 48 48 47 47 47 46 46 46 46 47 47 47 47 48 47 47 46 46 46 46 46 45 45 44 43 43 43 43
55 54 53 52 52 53 55 56 56 54 52 53 53 54 54 54 54 54 53 53 53 53 53 53 54 54 54 54 53 53 52 51 50 50 50 50 50 50 50 50 50 49 49 49 49 49 49 49 50 50 50 50 49 48 47 46 46 45 45 45 45 45 45
57 56 56 55 54 53 54 56 58 56 53 51 51 52 52 53 53 53 53 53 54 55 55 55 55 55 54 53 53 52 52 51 51 52 51 51 51 52 52 51 51 51 50 50 49 49 49 49 49 50 50 50 50 48 47 47 46 45 45 45 46 46 47
59 58 57 57 56 56 55 56 58 60 60 60 59 58 56 55 53 52 52 53 54 54 55 56 56 56 55 54 54 53 53 53 53 52 52 52 52 52 52 52 51 50 49 48 47 46 46 46 46 46 46 47 46 46 46 46 46 46 46 46 47 47 48
60 60 59 59 58 58 57 57 57 59 61 64 65 65 63 60 57 55 54 54 55 56 57 57 57 58 58 57 56 55 55 55 54 53 52 51 52 52 52 52 50 48 47 46 44 43 43 44 43 42 41 41 41 41 41 41 41 42 43 44 46 47 49
61 61 61 60 60 59 59 58 58 58 59 61 63 64 64 63 61 59 57 56 56 56 57 57 58 58 58 58 57 56 56 56 55 54 53 53 53 53 52 52 50 47 45 43 41 41 42 42 40 38 37 36 36 37 38 39 40 41 41 42 43 45 47
62 62 62 61 61 60 59 59 58 58 59 59 60 61 62 62 61 59 57 55 55 55 56 58 60 59 57 56 56 56 56 56 55 55 54 54 53 52 50 50 49 46 43 41 40 40 42 40 36 34 35 37 39 41 42 43 44 43 43 43 44 45 46
63 63 63 63 62 61 60 59 59 59 58 58 58 58 58 59 58 56 55 54 54 54 54 56 58 58 57 56 55 55 56 56 56 55 54 52 51 50 48 46 46 44 42 41 41 41 41 40 39 39 42 45 46 46 46 45 44 44 44 45 45 46 47
65 64 64 63 63 62 61 60 59 59 59 59 58 57 55 55 55 55 54 53 53 53 53 54 55 56 56 56 55 55 56 56 55 54 52 51 50 50 48 45 43 43 43 43 44 43 43 44 46 49 52 51 50 49 47 46 45 45 46 47 48 49 49
66 66 65 64 63 63 62 61 61 60 60 59 59 58 56 53 52 52 53 53 53 52 52 53 53 52 53 54 54 55 56 56 56 55 55 54 53 52 51 50 47 46 46 46 46 47 47 48 50 52 52 51 50 49 49 49 50 51 52 53 54 53 52
67 67 66 66 65 64 63 62 62 61 61 60 60 60 59 57 54 53 52 52 52 53 54 55 54 53 54 54 54 55 55 57 58 58 58 57 56 56 56 57 55 54 52 51 51 51 52 52 52 52 52 52 52 53 54 55 57 59 60 60 60 59 57
69 69 68 67 67 66 65 64 63 63 62 62 61 61 61 61 60 58 56 53 51 52 53 55 57 58 57 56 55 56 58 60 61 61 61 62 62 61 61 61 61 60 60 59 58 58 57 57 57 56 56 57 58 59 61 62 64 66 66 66 65 64 62
71 71 70 70 69 68 67 66 65 65 64 63 63 63 63 63 63 62 61 59 57 54 54 56 60 61 60 59 60 61 63 65 65 65 65 66 67 67 66 65 64 64 64 65 65 64 64 63 62 62 62 62 64 65 66 68 69 70 70 69 68 67 65
72 72 71 71 70 70 69 68 67 67 66 65 64 63 64 64 64 64 64 64 63 61 60 63 66 65 63 62 63 65 66 67 68 68 69 69 70 70 70 69 69 69 68 69 69 69 69 68 68 68 68 68 69 69 70 70 71 72 72 71 70 69 68
71 70 70 70 70 69 69 68 68 68 68 68 67 66 66 65 65 66 66 66 66 66 67 68 69 68 68 68 68 68 69 70 70 71 71 72 72 73 73 73 73 73 73 73 73 73 73 73 73 72 72 73 72 72 73 73 73 74 74 74 73 72 71
67 67 67 67 67 66 66 66 66 67 68 69 69 69 69 68 68 68 68 68 68 69 71 72 71 71 72 72 72 72 72 72 73 74 75 75 75 75 76 76 76 76 76 77 77 77 78 78 77 77 77 77 76 77 77 78 78 78 78 78 76 75 73
64 64 64 64 63 62 61 61 62 63 65 66 67 68 69 70 70 71 71 72 72 72 73 74 74 73 74 75 75 74 74 73 74 75 77 78 79 79 79 80 80 80 80 81 82 82 83 83 83 82 82 81 81 81 81 82 81 81 80 79 77 76 75
64 64 64 63 62 60 59 58 59 60 61 63 64 65 66 67 68 70 71 73 74 75 75 76 76 76 76 77 77 77 76 76 75 76 77 78 80 81 82 82 83 84 85 86 87 87 87 86 86 85 85 84 83 83 83 83 82 82 80 79 78 78 78
65 65 64 64 63 62 60 59 58 59 60 61 63 63 64 64 65 67 68 71 73 74 75 76 76 77 78 78 78 78 78 78 77 78 78 79 79 80 80 81 82 84 85 86 86 86 85 85 84 84 84 84 84 83 83 82 82 81 80 80 80 80 80
68 68 67 66 65 65 63 62 61 60 60 62 63 64 64 64 65 65 66 68 70 71 72 73 75 76 76 77 77 77 77 78 78 79 80 80 79 79 79 79 79 79 80 81 81 81 81 81 81 82 83 83 83 83 82 81 81 81 81 81 81 82 83
72 72 71 70 69 69 68 66 65 64 64 64 65 65 65 65 66 66 66 67 68 69 70 71 72 73 74 74 74 75 75 75 76 77 78 78 78 78 78 77 77 76 76 77 77 78 78 79 80 81 82 82 82 81 81 81 81 81 81 82 83 84 85
75 75 75 75 74 73 72 71 70 69 69 69 69 69 68 68 68 69 69 69 69 69 69 69 70 71 72 72 72 72 72 73 74 74 75 76 76 77 77 76 76 76 76 76 77 78 78 79 80 81 81 81 81 80 80 81 81 82 83 84 85 86 86

ECMWFFLT1_250_spd_024.txt.gz
Wind_Speed
36 35 34 32 31 31 31 31 31 30 29 30 31 32 33 33 33 33 33 33 33 33 33 32 31 29 26 24 23 24 25 26 28 30 31 29 27 26 25 25 25 27 30 31 32 34 36 37 38 39 39 36 33 32 33 34 36 37 39 40 42 44 46
35 35 33 31 31 31 31 32 32 31 30 30 31 32 33 34 34 34 34 34 34 34 33 32 31 29 26 24 23 24 25 26 28 29 29 28 27 25 23 23 24 25 27 29 31 33 36 38 38 39 39 37 34 33 33 33 34 34 36 37 38 39 41
33 32 31 31 30 31 31 31 31 31 31 31 31 32 32 32 32 32 33 32 32 32 32 31 30 28 27 26 26 26 26 26 27 27 27 27 25 23 22 21 22 23 24 26 28 29 31 34 35 36 37 35 34 33 33 31 32 33 33 34 36 38 38
32 31 30 29 29 29 29 30 29 29 29 29 29 30 30 30 30 30 31 31 31 31 32 31 30 29 29 29 29 29 29 28 27 26 26 25 25 24 23 22 23 23 24 25 26 27 28 29 30 31 32 32 31 31 31 30 30 31 31 31 32 34 36
31 30 30 29 28 28 28 28 28 28 27 26 26 27 27 27 27 27 28 28 29 29 30 30 30 31 31 32 32 33 33 32 30 29 28 27 27 27 26 25 25 25 25 25 26 26 27 27 27 28 29 30 30 29 29 30 29 29 29 29 29 31 32
31 31 30 29 29 28 28 29 29 28 27 27 27 26 26 26 26 26 26 26 26 26 26 27 28 30 32 33 34 35 36 36 35 33 31 31 31 31 30 29 28 27 27 27 27 27 27 27 27 28 28 29 29 30 30 30 30 29 28 28 28 28 30
32 32 31 30 30 30 29 29 29 29 29 29 29 28 28 27 27 27 27 26 26 25 25 25 26 28 30 32 34 36 37 39 39 39 38 37 37 36 35 34 33 32 31 30 30 29 28 28 27 28 29 30 30 30 31 31 31 31 30 29 28 28 28
32 32 33 32 32 31 29 29 29 30 31 31 31 31 30 30 30 29 29 28 27 26 26 26 26 27 29 30 32 33 35 37 39 41 41 42 42 41 39 38 37 36 35 34 33 32 31 30 29 29 30 31 32 32 33 33 32 32 32 31 30 29 28
34 34 35 35 35 33 31 30 30 31 32 32 33 33 33 32 32 31 31 30 29 28 28 28 29 31 31 32 32 33 33 34 36 38 40 41 42 42 41 40 39 38 37 36 35 34 34 33 32 31 32 33 34 35 35 34 34 33 33 33 32 31 29
37 37 37 38 38 38 35 33 33 33 34 35 35 35 35 35 35 35 34 34 33 32 31 31 32 32 33 34 34 34 34 34 34 36 38 40 41 42 42 42 41 39 39 38 37 36 35 35 34 34 34 34 35 36 37 37 36 36 35 35 33 32 31
41 40 39 39 40 40 39 38 37 37 36 36 37 37 37 37 37 37 37 37 36 36 36 36 35 35 35 35 35 36 36 36 36 36 36 37 39 39 40 40 40 40 39 39 38 37 37 37 37 36 35 35 35 35 37 38 39 39 39 38 36 35 34
41 39 38 38 39 42 43 43 43 42 40 39 39 39 38 38 38 38 38 38 38 38 38 38 39 39 38 38 37 37 38 38 39 39 38 38 38 38 38 39 40 40 40 39 38 38 38 39 39 38 38 37 36 35 36 37 38 39 40 40 39 38 37
45 43 41 40 40 41 44 47 47 46 44 43 43 42 41 40 40 40 39 39 40 40 41 41 41 41 41 40 40 40 40 40 40 41 41 41 40 40 39 39 40 40 41 41 40 40 40 40 40 40 39 39 38 38 37 38 38 38 39 40 40 40 40
52 51 49 47 46 44 44 47 50 50 48 47 46 45 45 44 44 44 43 42 43 43 43 43 43 43 43 43 43 43 43 43 42 42 43 43 42 42 42 42 42 42 43 43 43 43 42 42 42 42 41 41 41 41 40 41 41 41 40 40 41 41 42
56 54 53 53 54 52 49 48 50 52 52 51 50 49 48 47 47 47 46 46 46 46 45 45 45 46 46 46 45 45 44 44 44 43 43 43 43 44 45 46 46 46 46 45 45 44 43 43 43 44 43 43 43 44 44 44 44 44 44 43 43 42 42
57 56 55 54 56 57 56 53 51 51 51 51 51 52 52 51 51 50 49 48 48 49 49 48 48 48 48 47 47 46 45 44 44 44 44 45 46 46 47 48 49 49 49 48 47 46 45 45 45 46 46 46 47 47 48 48 48 48 48 48 47 46 45
57 56 55 54 56 58 58 56 54 53 52 51 51 52 53 54 53 53 53 52 51 51 51 50 49 48 48 48 48 48 48 47 46 45 45 45 46 47 48 48 49 50 50 50 50 49 49 48 48 48 49 50 50 51 52 52 52 52 52 53 53 53 52
56 56 57 57 58 60 60 58 57 56 55 54 53 52 52 53 54 54 54 53 52 51 50 50 49 49 49 50 50 51 52 51 50 49 48 47 46 46 47 47 48 48 48 48 48 48 49 49 49 49 50 51 52 53 54 55 56 56 56 57 58 58 58
59 59 60 61 62 62 61 60 59 59 58 57 56 55 54 54 54 54 55 55 54 53 52 51 51 51 52 52 53 54 54 54 54 53 51 50 49 48 47 48 48 49 48 48 47 47 47 47 48 48 48 50 50 51 52 53 55 56 57 58 60 61 61
65 64 65 65 65 63 62 62 61 61 60 59 58 57 56 56 56 56 56 57 57 57 57 57 57 57 56 56 56 56 56 56 57 56 54 53 52 50 49 49 49 50 50 49 48 47 47 47 47 47 47 48 48 48 48 48 49 50 52 54 56 59 60
68 68 67 66 64 63 63 63 62 62 61 60 60 59 58 58 58 58 58 58 58 58 58 59 60 60 60 60 60 59 59 59 58 58 57 55 53 51 50 49 50 50 50 50 49 49 48 48 48 48 47 47 47 47 46 46 46 47 49 51 52 53 53
68 68 67 65 64 64 64 63 63 63 63 62 62 61 60 60 59 59 59 59 58 58 58 59 59 59 60 61 61 60 60 59 58 57 55 53 51 50 50 49 50 50 50 50 50 49 48 48 48 47 46 45 45 45 45 45 45 46 47 49 49 48 48
68 68 67 66 66 65 64 64 64 64 64 64 64 63 61 60 59 59 59 59 59 59 59 59 58 58 57 57 57 58 58 59 56 53 51 50 50 49 49 50 51 51 51 51 50 49 48 48 47 46 45 44 44 43 43 43 44 45 47 49 48 46 45
70 70 69 69 68 67 66 66 66 66 66 66 66 64 62 60 59 59 59 59 59 60 60 59 59 58 57 56 56 56 57 57 55 52 51 50 50 50 49 50 52 53 52 51 50 48 47 46 46 45 45 45 44 44 43 42 42 44 46 47 47 46 46
72 72 72 72 71 71 70 69 68 68 68 67 66 65 63 62 61 60 60 59 59 60 61 61 61 60 58 57 56 56 56 56 54 53 54 55 55 51 47 47 51 53 53 52 51 49 48 47 46 46 46 46 45 46 46 45 45 45 46 48 50 52 55
75 75 75 75 75 74 73 72 71 70 69 68 67 66 65 63 62 62 61 61 60 60 61 62 61 60 59 58 56 56 56 56 55 55 56 56 54 47 41 46 52 55 55 54 53 52 51 49 49 48 48 48 48 48 49 50 49 49 50 52 55 58 60
77 77 78 78 77 77 76 75 73 72 71 69 68 67 66 65 64 63 62 62 61 61 62 62 62 61 60 59 58 57 56 57 58 58 58 56 52 47 47 54 58 60 60 58 56 55 53 51 50 50 49 49 49 50 51 51 52 52 53 54 56 57 58
78 79 79 79 79 78 77 76 75 73 72 71 69 68 67 66 66 65 63 63 62 61 63 63 63 63 62 61 61 59 57 58 60 62 62 60 59 58 58 60 60 59 60 61 62 61 59 56 54 53 52 52 52 51 52 52 52 52 53 53 54 55 55
80 80 80 80 80 79 79 78 77 75 74 72 71 70 69 68 67 66 65 65 64 63 63 64 64 64 64 63 63 63 61 61 63 66 66 65 64 63 63 62 62 61 61 62 64 65 65 65 64 63 62 61 60 59 58 57 56 56 56 56 56 56 56
81 81 81 81 80 80 79 78 77 76 75 74 73 71 70 69 67 66 65 65 65 65 65 66 66 66 66 66 66 67 66 65 67 70 71 69 68 67 66 65 65 65 65 65 65 66 66 68 69 70 70 70 69 68 66 64 63 63 62 61 61 60 60
79 78 78 78 78 77 77 76 76 75 75 74 73 71 70 70 69 68 67 67 68 67 68 69 70 70 70 69 69 69 69 69 70 72 73 73 71 70 68 68 68 68 68 68 68 68 69 70 71 72 73 74 74 74 73 72 71 70 70 69 68 67 67
74 73 73 72 72 72 72 71 72 72 72 72 70 69 69 69 69 69 70 70 71 71 72 73 73 74 74 74 73 72 71 71 72 73 75 76 75 74 73 72 72 72 72 72 72 73 73 74 74 74 75 75 76 76 77 77 76 76 76 76 75 74 73
70 70 70 69 68 67 68 67 68 68 68 68 67 66 66 67 67 67 68 69 71 72 72 74 75 76 76 76 76 75 75 74 74 75 76 77 78 78 77 77 76 76 76 76 76 76 76 76 76 76 76 76 77 77 78 78 78 78 77 77 77 76 74
71 71 70 69 68 67 67 67 67 67 67 66 66 65 64 65 65 65 65 66 67 68 69 71 72 73 74 75 75 76 76 77 77 77 78 79 80 80 80 80 80 79 79 78 78 78 78 78 78 78 78 78 78 78 77 77 77 77 76 75 74 73 72
73 74 74 73 71 70 69 69 69 69 68 68 67 66 65 64 64 64 64 65 65 66 66 68 69 70 71 72 73 74 74 76 77 78 79 80 81 81 82 82 81 81 80 80 80 79 80 80 79 79 79 78 77 77 76 75 74 74 73 73 72 72 72
76 76 77 77 76 74 73 72 72 72 72 72 71 70 68 66 66 66 65 65 65 65 65 66 68 69 69 69 70 71 72 72 73 75 76 77 78 79 80 80 80 80 80 79 79 78 78 78 78 78 77 77 76 75 74 73 72 72 72 72 72 72 72
78 78 79 79 79 79 78 76 76 75 75 75 75 74 73 71 70 69 69 67 66 66 66 67 68 69 69 68 69 69 69 69 70 70 71 72 73 74 75 76 77 76 76 76 76 76 75 75 75 76 76 75 75 74 74 73 73 73 72 72 72 73 73

ECMWFFLT1_250_spd_027.txt.gz
Wind_Speed
53 49 46 43 40 37 35 33 32 31 31 31 30 28 27 27 28 30 32 34 36 38 40 42 43 45 47 48 49 48 47 45 44 42 42 41 38 35 33 31 30 31 32 34 35 37 39 40 39 40 41 41 41 41 41 41 41 40 40 39 39 40 43
48 46 42 39 37 35 33 32 31 30 31 31 30 30 29 28 29 30 31 33 35 37 40 42 44 44 45 46 45 45 44 42 41 40 40 39 36 34 31 30 31 32 32 32 33 35 38 40 40 40 41 41 43 44 44 43 42 41 38 37 37 38 40
44 43 41 38 36 34 32 31 30 29 29 29 29 30 30 30 30 30 31 32 33 34 36 38 39 41 42 42 42 42 41 40 39 38 37 36 34 33 31 29 29 32 33 32 32 33 36 40 41 41 42 42 43 45 44 42 40 38 37 36 36 36 37
42 41 39 37 35 34 32 30 28 28 27 27 27 27 28 29 29 30 31 31 31 32 33 34 35 36 37 39 39 39 38 37 37 36 35 34 32 31 31 30 30 31 32 32 32 33 37 41 42 42 41 40 41 42 41 39 37 36 36 36 36 36 36
37 38 37 36 34 31 30 28 27 27 26 26 26 25 25 25 26 27 28 29 30 30 30 31 32 33 34 36 37 37 37 37 36 35 34 33 32 33 33 33 32 31 31 32 33 35 37 40 40 39 39 37 38 38 38 37 36 35 35 35 35 34 33
30 31 32 32 31 29 28 27 27 27 27 26 26 25 24 23 23 24 25 26 26 26 27 27 27 28 30 32 33 35 35 36 36 36 35 35 35 36 36 36 36 35 34 34 35 35 36 38 38 38 38 37 37 37 36 36 35 34 34 33 33 32 31
29 29 29 28 28 27 26 27 27 28 27 27 27 26 25 23 23 23 23 24 24 25 25 25 26 26 27 29 30 32 33 34 34 35 36 36 38 39 39 39 38 38 39 39 39 38 37 38 39 38 38 38 38 38 37 36 34 33 32 32 32 32 32
32 32 31 31 28 27 27 27 27 27 27 28 28 27 26 24 23 24 24 25 26 26 26 26 27 27 27 29 30 31 32 32 32 32 33 35 37 39 41 42 42 42 42 42 42 42 42 41 41 41 41 41 41 40 39 38 36 35 34 34 33 33 34
37 36 35 34 31 29 29 29 29 29 29 29 29 29 28 26 25 25 26 27 28 29 29 29 29 29 30 30 31 31 31 31 31 31 31 32 34 36 39 42 44 45 46 47 47 47 47 47 46 45 44 44 44 43 42 40 39 38 37 36 36 36 36
41 40 38 36 34 32 32 33 33 33 33 32 32 32 31 29 28 28 28 29 29 30 30 30 31 31 32 32 32 33 33 33 33 32 32 32 33 34 35 38 41 44 47 48 49 50 50 50 49 47 45 45 46 45 44 42 41 40 39 38 37 37 38
43 43 41 39 39 39 39 38 37 36 36 35 34 34 33 32 31 31 31 30 31 31 31 32 32 32 33 33 33 33 34 35 35 35 35 34 34 35 35 37 38 40 42 43 45 46 46 46 46 46 45 45 46 46 45 44 43 42 41 40 39 39 39
45 45 43 42 41 42 42 40 38 37 37 38 37 37 36 36 35 34 33 33 33 34 34 34 34 34 35 35 35 35 35 35 36 37 37 37 37 37 38 38 39 39 40 41 41 42 42 43 43 44 43 44 44 44 45 45 45 44 43 42 41 40 40
44 44 45 45 43 43 41 40 39 38 40 40 41 42 42 42 41 39 38 37 36 37 37 37 37 37 37 37 37 37 37 37 38 38 38 38 38 39 39 39 40 40 41 41 42 42 42 42 42 42 43 43 43 43 43 44 45 45 45 44 43 42 42
46 45 46 47 47 46 44 42 42 42 44 45 46 47 47 48 48 48 46 43 41 40 40 40 40 40 39 39 39 39 39 39 40 40 40 40 40 40 40 40 40 41 42 42 43 43 44 44 44 44 44 44 44 44 44 45 45 46 46 46 45 44 43
51 50 50 51 51 50 48 47 44 43 45 47 50 51 50 50 51 51 51 49 47 45 43 43 43 43 42 42 41 41 41 41 42 42 42 42 42 41 41 40 40 41 42 43 44 44 45 46 46 46 47 47 48 48 49 49 48 48 48 47 47 46 46
56 56 55 55 54 53 52 51 49 48 49 50 52 54 54 54 52 51 51 51 50 48 47 47 47 46 46 45 44 43 43 44 44 44 44 44 43 42 41 41 40 40 41 42 44 45 46 48 49 49 50 51 51 52 53 52 52 51 51 50 49 49 49
60 60 60 58 57 57 56 56 57 57 57 57 58 58 57 55 52 50 51 52 51 50 50 50 50 49 50 49 48 47 46 46 46 46 46 45 45 44 44 43 42 42 41 42 44 45 47 49 50 51 51 52 52 53 53 53 53 54 54 53 53 52 52
65 65 64 62 61 61 62 63 63 63 63 63 62 60 57 55 53 52 52 52 52 51 51 52 52 52 52 52 51 51 50 49 49 48 48 48 47 47 47 47 46 46 45 45 46 46 47 48 49 50 50 50 50 50 51 52 52 53 54 54 54 55 54
70 69 69 68 67 67 68 68 67 66 66 65 62 59 57 58 57 56 55 54 53 53 53 53 53 54 54 54 54 53 52 52 52 52 51 51 51 50 50 50 50 49 49 50 50 50 50 50 50 50 50 49 49 49 49 50 51 51 51 52 54 54 54
70 70 70 70 69 69 69 69 68 68 66 64 61 58 58 60 62 61 59 58 57 56 55 54 54 55 55 56 56 55 55 54 54 55 54 54 53 53 52 52 52 52 53 53 53 52 52 51 51 50 50 50 49 49 49 50 50 50 50 51 52 53 54
71 71 71 71 70 70 70 70 70 69 67 63 61 60 60 62 64 64 63 62 60 59 58 57 56 56 57 57 57 57 56 56 56 56 56 55 54 54 53 53 53 53 53 53 52 52 51 50 50 50 50 50 50 50 50 51 51 50 50 51 53 53 54
75 76 75 74 74 73 71 71 70 68 66 64 62 61 61 62 64 65 64 63 62 61 60 60 59 59 59 59 58 58 57 56 56 56 56 55 53 53 52 51 50 51 51 51 50 49 48 48 48 49 50 50 50 50 50 51 52 50 50 51 52 53 53
74 75 75 74 72 70 68 67 67 66 66 64 62 61 61 62 63 63 63 62 62 62 61 60 60 59 59 60 60 59 58 56 55 55 55 55 54 53 49 44 43 45 47 48 48 47 47 47 47 48 49 50 50 50 50 51 51 50 50 50 50 50 50
71 72 72 71 70 69 68 68 68 67 66 64 62 61 60 60 59 58 57 57 57 57 57 57 58 58 59 59 59 59 58 56 55 54 53 53 54 53 45 37 36 38 40 42 43 43 43 44 46 47 49 51 51 50 50 50 51 50 50 48 47 47 47
70 70 71 71 71 71 71 71 71 69 66 63 61 58 56 55 55 54 53 51 51 51 53 56 57 58 58 58 59 59 58 56 55 54 52 51 51 50 45 41 41 42 43 44 45 45 44 45 47 49 51 51 49 47 47 48 49 50 50 50 49 48 48
69 70 70 71 71 72 72 72 71 70 68 64 60 56 52 52 55 56 55 52 51 52 54 57 58 57 57 57 58 58 58 57 56 55 54 52 52 51 51 51 52 53 54 52 52 52 50 47 49 52 53 51 49 48 47 47 50 52 53 52 52 52 51
69 70 70 71 71 72 72 72 72 71 70 67 64 59 56 54 55 58 59 59 56 52 49 51 55 55 54 56 57 58 58 58 58 58 56 55 54 53 55 57 58 61 61 57 55 54 52 51 53 55 54 52 51 51 52 54 57 59 58 56 55 55 55
70 71 71 72 72 72 73 73 73 73 72 71 69 67 64 61 58 60 63 62 59 54 50 52 55 53 51 53 55 56 56 56 58 59 58 57 57 57 57 59 60 62 63 61 59 56 55 55 57 57 56 55 56 58 62 64 63 59 57 58 57 56 57
73 73 74 74 74 75 75 76 76 76 75 75 74 73 73 71 68 68 70 69 67 65 63 65 65 61 59 59 60 60 60 60 61 61 60 60 61 61 60 61 62 63 64 65 65 62 59 57 58 60 61 63 65 67 69 68 63 58 55 56 56 56 56
74 75 76 77 77 78 79 79 79 80 79 79 79 78 78 77 75 75 76 75 74 70 66 66 67 67 68 69 69 68 68 67 65 63 63 64 65 65 64 65 66 68 68 69 69 67 65 63 65 68 70 71 71 70 69 67 65 63 62 62 60 59 58
74 75 77 78 79 79 80 81 81 81 81 81 81 80 80 78 76 76 75 74 72 68 63 62 64 66 67 69 70 70 69 67 65 65 65 66 67 68 68 69 71 73 73 72 71 70 70 70 72 74 74 74 72 70 70 70 68 68 68 68 68 67 66
72 74 76 77 77 77 78 78 78 78 77 77 77 76 75 74 72 70 68 66 66 63 61 64 67 67 66 66 67 68 66 65 64 66 67 69 70 70 70 71 72 74 74 73 73 72 73 73 74 75 76 75 74 72 73 73 72 72 72 73 73 72 73
72 73 74 75 75 74 75 74 74 73 73 73 73 72 70 68 66 65 63 61 61 59 57 61 65 65 64 66 67 67 66 65 65 69 72 72 72 71 71 72 73 74 75 75 75 75 75 75 76 76 77 76 76 75 75 76 76 76 75 75 76 76 76
73 74 75 75 75 74 74 74 73 73 72 72 72 71 70 68 65 63 62 61 60 58 57 59 62 62 64 67 68 67 66 65 66 70 74 74 72 72 72 74 75 76 76 77 77 77 77 78 78 78 78 78 78 77 77 77 78 78 77 76 76 77 76
75 75 76 77 77 77 76 76 75 75 75 74 74 74 73 71 68 65 64 64 63 62 63 64 65 66 68 69 68 67 65 65 66 68 70 71 71 71 72 72 73 74 74 75 75 75 76 76 77 78 78 79 79 79 79 78 78 77 76 75 74 74 73
78 77 78 78 79 78 78 78 78 78 77 78 77 77 77 75 72 69 68 68 68 68 68 68 68 69 70 70 69 68 68 68 68 68 68 68 69 69 70 70 69 70 70 71 71 71 71 71 72 73 74 75 76 76 76 75 74 74 73 72 71 71 70
80 80 79 79 79 79 79 79 79 79 79 79 79 79 79 79 77 74 73 73 73 73 72 72 71 71 72 72 72 70 70 69 70 70 69 69 69 69 69 68 68 68 68 68 68 68 68 68 68 69 70 72 72 72 72 72 72 72 71 70 70 70 70

ECMWFFLT1_250_spd_030.txt.gz
Wind_Speed
39 39 42 46 49 49 47 47 47 46 44 42 41 39 38 38 37 36 36 36 35 35 38 40 41 42 46 52 55 55 54 53 53 53 51 49 47 43 41 41 43 44 44 44 42 41 41 40 37 36 37 38 40 41 42 42 41 41 42 43 44 43 42
39 41 45 48 47 44 42 41 41 40 39 38 37 36 35 35 36 35 35 35 35 35 37 39 41 42 42 45 50 53 55 56 56 56 54 53 52 51 48 47 47 47 46 46 45 44 45 43 39 38 39 41 42 43 44 44 44 44 45 46 46 45 44
41 44 46 46 43 40 38 37 36 36 36 35 35 34 33 34 34 35 34 33 34 34 35 37 40 42 43 43 45 47 50 52 54 54 54 54 53 54 54 53 51 50 48 45 44 44 44 44 43 41 40 42 44 44 45 46 46 46 46 47 47 47 46
35 37 41 42 40 36 33 31 32 33 33 33 32 32 31 31 32 32 32 32 32 33 34 35 37 40 43 44 45 46 47 49 50 51 53 54 54 55 56 56 55 53 50 47 45 44 44 45 46 44 42 42 42 43 43 45 47 47 47 47 48 49 48
26 28 31 32 33 30 27 26 27 29 30 29 29 28 28 28 28 29 29 29 29 29 30 32 34 36 39 41 44 45 47 48 50 51 52 54 55 56 56 57 57 54 51 49 46 44 43 44 45 46 44 42 41 42 42 44 46 48 49 49 49 48 47
27 28 27 27 28 27 26 26 26 26 26 26 26 25 25 25 25 25 26 26 26 26 26 27 28 30 32 35 37 40 43 45 47 49 50 52 53 54 54 54 54 53 51 49 46 43 42 42 44 46 46 43 42 43 44 45 46 47 47 46 46 45 44
35 33 31 30 31 30 30 29 27 26 24 24 24 23 23 23 23 23 24 25 24 24 24 25 25 25 27 28 29 32 34 36 38 41 43 45 46 48 49 50 50 50 49 48 46 45 44 43 43 45 45 44 43 43 44 45 45 45 44 42 42 42 43
42 39 35 33 33 33 32 31 30 29 27 25 24 23 23 23 23 23 24 24 24 25 24 24 24 24 25 25 26 27 28 30 31 33 34 36 38 40 43 45 46 47 48 48 48 48 47 45 45 45 45 44 44 43 44 44 44 44 43 42 42 42 43
48 46 43 40 37 35 34 34 36 36 33 29 28 27 27 26 26 25 25 26 26 27 27 26 26 25 26 26 26 27 28 29 30 31 32 33 34 36 38 40 42 44 46 47 48 50 50 50 49 48 48 48 47 47 47 47 47 47 47 46 46 45 45
52 52 51 50 46 43 41 41 40 39 37 35 34 34 32 31 29 28 27 28 28 29 29 29 28 28 28 27 27 27 28 28 29 30 32 33 34 35 36 37 39 40 41 43 46 48 50 51 52 51 51 51 51 52 52 52 52 52 52 51 50 49 48
53 52 52 53 52 50 48 46 43 41 40 40 39 39 38 35 33 31 30 29 29 30 30 31 31 31 31 30 29 29 29 29 30 31 32 33 34 36 37 38 39 40 41 42 43 45 47 49 51 52 53 55 55 56 57 57 57 57 56 55 53 50 48
53 52 51 51 53 52 48 44 43 42 42 43 42 42 42 40 38 35 33 32 32 32 33 34 35 35 34 33 33 32 32 32 32 33 34 35 36 37 38 39 40 41 41 42 43 44 45 46 47 48 50 52 54 55 56 57 57 57 56 54 53 51 50
53 51 50 50 52 53 48 44 42 42 44 45 46 46 44 43 42 41 37 35 34 34 36 37 39 40 39 39 38 38 37 37 37 36 36 36 37 38 39 39 40 41 42 43 44 45 46 47 47 48 48 49 50 51 51 52 51 51 50 50 49 50 50
55 53 51 49 51 53 51 48 46 46 46 48 50 51 49 46 44 44 42 38 35 36 38 41 44 45 45 44 44 43 43 42 42 41 40 39 39 39 40 41 41 42 43 44 45 45 47 48 48 49 50 50 50 50 50 49 49 49 48 48 48 48 49
57 56 54 52 52 54 55 54 54 53 52 53 54 55 55 52 48 47 46 42 39 39 42 46 49 50 50 49 47 46 45 45 45 45 44 43 42 42 42 42 43 43 44 45 46 46 47 47 49 49 50 50 50 50 50 49 49 49 50 50 50 49 49
60 58 57 56 55 56 58 59 60 60 59 58 58 58 58 56 52 50 49 48 46 46 48 52 54 55 55 52 48 46 46 46 46 46 46 46 46 45 44 44 44 44 45 46 46 47 46 47 47 48 48 48 48 49 49 49 50 51 51 51 52 52 51
62 60 60 60 59 59 60 62 64 65 65 65 63 62 59 56 54 53 53 53 53 53 55 57 57 57 56 53 50 48 48 48 47 47 48 48 48 48 47 46 45 45 46 46 47 47 47 47 48 47 47 47 47 47 47 47 48 50 51 51 52 53 53
63 62 62 62 63 63 63 64 66 68 69 69 68 66 63 59 57 56 56 56 57 58 61 61 59 56 55 53 52 52 51 50 50 50 50 51 51 50 50 49 48 47 47 47 48 48 47 48 48 47 47 48 48 48 47 47 48 50 51 51 52 53 54
63 64 64 64 65 66 66 67 68 70 70 71 71 70 69 67 65 63 62 62 63 64 63 61 58 56 54 53 53 54 54 53 53 52 52 53 53 53 52 52 51 50 50 49 49 48 48 48 48 48 48 48 49 48 47 48 50 50 51 52 52 53 53
64 65 66 67 67 68 69 70 70 70 71 71 72 72 73 73 72 71 70 69 67 65 63 61 59 57 56 55 54 54 55 55 55 54 54 54 55 55 55 54 53 52 51 51 50 50 49 49 49 49 49 48 50 50 48 48 50 50 51 52 52 53 53
65 66 68 69 69 69 71 72 73 74 75 75 76 77 78 78 77 75 72 69 67 66 64 62 59 57 57 56 56 56 56 55 54 54 54 54 55 55 54 54 54 54 53 52 52 51 51 51 50 50 50 49 49 50 49 48 47 48 49 50 50 51 52
64 64 66 68 69 70 71 73 75 76 78 79 79 80 80 78 76 74 72 71 70 68 65 61 58 58 58 57 56 55 53 52 51 51 51 51 51 52 53 55 56 56 55 54 54 52 51 51 50 50 50 49 48 48 48 47 46 46 47 48 48 49 50
65 65 66 67 69 71 72 74 76 76 77 78 78 78 77 75 74 74 74 74 72 69 64 60 58 57 56 54 53 52 51 51 51 50 49 49 50 52 55 57 57 57 56 55 54 52 50 50 51 51 49 48 46 45 46 46 46 46 46 47 49 49 50
68 69 70 71 72 72 73 74 75 76 77 77 78 78 77 76 76 75 75 74 69 63 59 56 55 55 53 51 50 49 48 48 47 47 48 49 50 52 53 54 55 55 55 55 54 52 50 49 50 50 48 45 44 44 45 45 45 45 46 47 49 50 50
70 70 71 72 73 74 74 74 74 74 75 75 76 77 77 76 75 73 72 70 64 58 55 56 57 57 55 50 46 44 43 42 43 44 46 48 49 50 51 52 53 53 53 53 53 52 50 49 48 49 48 46 47 48 48 47 47 48 50 52 53 53 53
70 70 70 71 72 72 72 72 72 72 72 72 73 74 74 73 72 70 68 66 63 60 58 58 59 57 54 48 43 41 41 41 43 44 45 47 49 50 51 51 51 51 51 50 51 51 50 50 51 51 51 51 52 52 51 51 53 54 57 59 58 55 54
71 71 70 70 70 70 70 70 71 71 70 70 72 72 71 71 69 68 67 67 66 64 61 59 57 54 51 50 49 48 50 51 51 49 46 46 46 48 49 52 53 53 53 51 51 51 51 53 56 57 56 56 57 57 57 58 60 61 63 63 60 57 55
72 72 72 72 71 71 71 71 72 71 70 70 71 72 72 71 70 69 69 69 67 66 65 63 60 58 56 56 57 58 60 60 58 54 50 48 48 47 48 51 55 56 56 56 55 54 54 56 59 61 61 61 62 64 65 65 65 65 64 63 62 60 59
73 73 73 73 73 72 72 73 72 72 71 71 71 72 72 72 71 70 70 69 68 68 68 67 67 67 67 67 66 66 67 66 65 62 60 60 60 58 58 60 63 64 63 61 60 60 60 61 63 64 65 66 67 69 70 68 66 65 64 64 64 63 62
74 73 73 73 73 73 73 73 73 73 72 72 73 73 73 73 72 72 72 72 71 71 71 71 72 73 74 74 73 73 74 74 73 72 73 72 71 70 71 72 73 72 71 69 68 68 68 69 69 69 68 68 69 71 71 71 69 67 66 66 66 66 66
74 74 74 74 74 73 73 74 74 74 74 74 74 74 75 74 74 74 74 75 75 75 74 74 75 75 76 77 77 78 78 78 76 74 74 75 74 74 75 74 73 74 76 76 75 75 74 73 72 70 70 70 71 71 72 72 72 71 70 69 68 68 68
73 72 72 72 72 72 72 72 73 73 73 73 74 74 74 74 74 75 74 75 76 75 74 74 75 75 76 77 77 78 77 75 73 72 71 72 73 75 76 75 73 74 76 76 75 75 75 74 72 71 71 72 72 73 73 73 73 73 73 73 71 70 70
71 69 69 68 67 67 67 67 68 68 68 68 69 69 70 70 70 71 71 70 71 71 70 70 71 71 71 72 72 73 72 69 68 70 70 70 71 73 74 75 76 77 78 76 73 73 73 72 72 71 71 71 72 73 74 75 74 73 73 73 73 73 73
72 71 69 67 66 65 65 64 65 65 65 65 65 66 66 67 67 67 68 68 68 68 68 68 69 69 69 70 70 70 70 69 69 70 70 69 69 70 72 73 75 77 77 76 73 72 71 70 70 70 69 70 71 72 73 75 74 73 71 71 71 72 72
76 75 74 72 70 68 67 67 67 67 67 67 67 67 67 68 68 68 69 70 69 69 69 70 71 71 70 71 71 71 70 71 71 70 70 70 69 69 70 71 71 71 72 71 70 69 68 68 68 67 67 67 67 67 68 70 71 71 70 68 68 68 69
79 80 79 78 77 75 74 74 73 72 72 72 71 71 71 71 71 71 71 72 72 70 70 72 74 74 73 73 74 73 72 72 73 74 74 72 69 69 71 72 70 69 69 69 70 69 69 68 67 67 67 66 65 65 65 65 67 68 67 66 65 65 66
82 82 83 83 82 81 80 80 79 78 77 76 75 75 74 74 75 75 75 75 74 73 73 74 77 78 77 76 76 76 76 78 80 80 78 72 69 71 73 72 71 71 71 71 71 71 70 70 69 69 68 67 66 66 66 66 66 66 67 66 65 65 65

ECMWFFLT1_250_spd_033.txt.gz
Wind_Speed
33 33 34 34 36 38 37 36 35 35 37 39 42 44 46 47 47 47 47 46 41 36 33 32 32 31 31 31 33 34 33 35 41 46 45 43 44 45 45 43 40 38 38 39 39 39 40 41 42 41 41 40 40 40 40 40 39 39 39 39 39 39 39
34 34 36 37 37 37 37 37 36 35 37 39 42 44 46 45 44 45 46 43 38 35 33 32 31 31 30 31 32 34 34 34 36 41 45 46 45 47 48 48 46 44 43 44 43 42 42 43 44 45 46 45 45 44 44 43 42 42 41 40 41 42 42
37 37 38 38 38 38 38 37 37 37 37 39 42 43 42 41 42 44 42 38 35 33 31 30 29 29 29 30 31 32 34 35 35 37 40 43 46 47 49 50 50 50 50 50 49 48 48 47 47 48 48 48 47 46 46 45 45 44 44 43 44 44 44
41 39 38 37 38 40 38 37 36 36 36 38 39 38 37 38 40 40 36 33 31 31 29 27 26 26 26 28 29 31 32 34 36 37 38 40 42 45 47 49 51 52 54 54 54 53 52 51 50 50 49 49 49 48 47 46 45 45 45 45 45 44 44
44 42 39 37 38 40 38 35 34 34 35 36 37 37 37 38 37 34 31 30 29 27 26 25 24 24 24 25 26 28 30 32 34 36 37 39 41 43 45 47 48 50 51 52 53 53 53 53 53 52 50 50 49 48 47 46 45 45 46 46 44 43 43
45 42 39 38 40 43 42 39 36 35 35 37 38 40 40 38 33 30 28 27 25 24 24 23 23 23 23 23 24 24 26 28 30 32 34 36 39 41 42 44 46 47 48 49 50 51 52 53 53 52 51 50 49 48 46 45 44 44 45 45 44 42 43
46 43 40 39 40 43 44 43 42 40 40 41 41 41 40 36 32 29 27 25 24 23 23 23 23 23 23 23 23 23 24 24 25 27 29 31 33 35 38 40 41 43 44 46 47 48 49 50 50 50 49 49 48 46 46 45 45 44 45 45 45 44 44
47 46 43 42 43 44 44 45 45 45 45 45 44 43 42 41 39 36 33 30 27 24 23 24 24 24 24 24 24 24 25 25 25 26 27 29 30 32 33 35 36 38 39 40 41 42 43 45 46 47 48 48 48 47 46 47 46 45 45 46 46 46 46
46 45 45 45 45 47 47 48 48 48 48 48 47 48 49 50 49 46 43 40 35 29 26 24 24 24 26 26 27 26 26 26 27 28 29 30 31 32 33 34 35 36 37 38 38 39 40 41 41 42 44 46 47 48 48 49 50 49 49 48 48 48 48
45 44 44 45 45 47 49 51 51 51 51 52 52 54 55 55 55 53 50 48 45 39 32 28 26 25 25 27 29 30 30 30 29 29 30 31 32 33 34 35 35 35 36 36 37 37 38 39 40 41 42 43 44 45 46 49 51 52 53 53 52 52 52
46 45 45 46 46 47 49 50 52 52 52 53 54 55 56 57 57 56 54 52 50 48 42 36 31 28 27 27 29 32 33 34 34 34 34 34 34 35 35 36 36 37 37 37 36 36 37 39 40 41 42 43 43 43 44 46 48 50 51 53 54 55 55
47 47 47 48 48 48 49 50 50 51 51 51 52 54 55 56 56 57 56 55 54 53 50 46 40 35 32 31 31 33 34 36 37 38 38 39 39 40 40 40 40 40 40 39 38 38 38 39 40 41 42 42 43 43 44 45 46 47 48 50 51 53 55
46 47 47 48 49 50 50 50 50 51 51 52 53 54 55 57 57 58 58 58 56 54 53 51 48 43 39 38 37 37 38 40 41 42 43 43 44 45 46 47 47 46 44 43 42 41 40 40 40 41 42 42 43 43 43 45 46 47 48 49 50 52 53
46 47 48 49 50 50 51 52 52 52 53 53 55 56 58 59 60 60 59 58 57 55 53 52 51 49 47 44 42 43 44 46 47 48 49 48 49 51 52 53 52 51 48 46 45 44 43 42 41 41 42 43 43 43 44 45 46 47 48 49 51 52 53
48 48 49 50 50 51 51 52 53 53 53 54 55 57 58 59 60 59 58 57 56 55 54 53 52 51 50 48 46 46 48 49 50 51 52 52 54 57 58 56 54 52 50 48 48 47 47 45 43 42 43 44 44 45 45 45 46 47 48 49 49 50 52
46 47 48 50 51 52 52 52 52 52 52 53 55 56 57 58 58 57 57 57 56 55 55 54 53 52 52 50 49 49 50 52 52 52 53 54 57 59 60 58 55 53 51 50 50 50 49 47 45 44 44 44 45 46 46 45 46 47 48 49 48 48 49
47 50 53 55 55 53 53 53 53 53 53 53 54 55 56 57 58 58 58 58 57 56 56 55 54 54 53 52 51 51 52 52 52 53 56 59 61 61 60 57 56 54 54 53 53 53 52 50 47 46 46 45 45 46 47 47 47 48 49 50 50 49 49
51 53 56 59 59 58 56 56 56 55 54 55 56 56 57 58 59 60 60 60 59 59 58 58 57 57 56 55 54 54 53 54 55 58 61 63 64 63 61 58 56 55 56 56 56 55 54 52 50 48 48 47 45 45 47 48 49 49 49 50 51 51 51
51 51 52 56 59 60 59 58 57 57 56 56 57 58 59 59 60 61 61 61 61 61 61 61 62 61 60 60 60 60 60 61 63 65 67 66 64 63 61 59 58 56 56 57 57 56 55 54 51 50 49 47 45 45 46 48 50 50 50 50 51 52 53
43 41 42 46 51 55 57 57 58 58 59 59 59 59 60 60 61 62 63 63 63 63 64 64 65 65 64 64 65 65 66 68 70 70 70 68 65 64 62 60 59 59 59 58 57 56 55 53 50 48 48 49 48 47 46 47 49 50 50 51 52 53 54
40 36 36 41 46 50 53 54 56 58 59 61 62 63 63 63 63 63 64 64 64 65 66 67 67 68 68 68 69 69 70 72 72 71 70 68 66 65 64 62 60 59 59 59 58 56 53 50 48 47 48 50 51 49 47 47 48 49 50 51 53 55 56
44 42 42 45 48 51 54 57 60 62 63 64 64 64 63 63 63 62 63 63 64 65 66 67 68 69 70 70 70 71 71 72 72 71 70 69 69 67 65 62 60 59 60 60 58 55 52 50 49 49 49 50 50 48 47 47 48 49 50 51 51 53 55
46 47 51 55 58 58 59 61 63 65 66 67 67 66 64 63 63 62 61 61 62 64 65 66 68 69 70 70 70 70 71 71 72 71 71 71 69 68 66 64 63 62 61 60 57 54 53 53 52 52 52 50 48 47 47 47 48 49 50 50 49 50 51
52 54 57 61 62 61 59 59 61 63 65 66 67 67 66 66 66 66 65 65 66 67 68 69 70 70 70 70 71 71 71 71 71 71 71 70 68 67 67 66 64 62 59 57 55 55 56 56 56 55 54 52 50 48 47 47 48 49 49 48 47 47 47
61 63 63 62 62 60 57 57 59 61 62 65 66 67 67 68 69 70 71 72 73 73 73 73 73 73 72 71 71 71 71 71 70 69 68 66 65 65 64 63 63 61 60 59 59 59 59 59 60 58 55 52 52 51 48 47 47 49 49 48 46 46 47
66 67 66 63 61 57 51 49 54 57 59 62 64 66 69 71 72 74 75 76 77 77 77 77 76 75 73 71 70 70 70 69 68 66 64 63 64 65 64 62 61 60 59 60 61 61 61 61 60 57 53 50 50 51 50 50 50 51 51 51 50 50 51
69 69 68 66 65 61 55 56 63 66 66 69 71 73 75 76 77 77 77 77 78 78 77 77 76 74 73 71 70 69 69 68 67 65 64 64 65 65 64 62 60 59 59 60 61 62 61 59 57 56 55 53 52 52 53 53 55 57 57 56 55 56 56
74 73 73 73 73 73 72 74 78 80 80 81 81 81 81 81 81 80 79 78 77 76 75 75 74 74 73 72 71 70 70 69 67 66 66 67 66 65 64 62 62 61 61 62 63 63 61 59 59 60 61 60 60 60 61 62 63 64 63 63 62 62 62
75 75 76 76 76 77 78 79 82 83 83 82 81 81 81 81 80 79 78 77 76 76 75 75 75 75 75 74 73 72 72 71 70 68 68 69 69 68 67 65 65 65 65 67 69 69 67 66 65 65 67 68 71 72 74 74 73 70 68 67 67 68 69
74 74 74 75 75 76 76 78 79 79 79 79 79 80 80 81 80 79 78 78 77 77 77 76 76 76 76 76 75 74 73 73 72 71 70 70 71 72 72 72 72 72 72 74 75 75 74 74 74 73 75 78 80 81 80 78 76 73 70 68 69 70 71
73 73 73 74 74 75 76 77 78 78 77 77 77 79 80 81 80 79 79 78 77 77 78 78 78 77 77 78 77 76 76 75 75 74 73 74 74 75 76 77 77 77 78 79 79 78 78 79 79 79 80 83 84 83 79 77 75 74 72 71 70 70 70
73 74 74 75 75 75 76 77 78 78 77 76 77 79 81 82 81 80 80 79 78 78 79 79 79 79 79 79 79 79 78 78 77 77 77 77 76 77 78 79 79 80 80 81 81 81 80 80 80 80 81 82 83 80 76 76 76 76 75 74 73 71 70
74 75 75 76 76 76 76 77 78 78 77 77 77 79 80 80 80 80 79 79 77 76 76 76 77 78 78 78 78 77 77 77 77 77 77 77 76 76 76 77 77 77 78 79 79 79 79 78 77 76 75 75 76 76 75 75 77 78 78 77 75 72 71
73 73 73 73 73 73 74 74 75 75 75 74 73 74 74 74 74 73 73 72 71 69 69 70 71 72 73 73 74 74 74 74 74 74 74 74 73 73 74 74 74 74 75 77 77 76 76 74 73 72 71 70 71 72 71 71 72 74 75 75 74 73 71
73 73 72 71 71 71 72 72 73 73 73 72 71 70 71 71 70 70 69 69 68 66 66 67 68 70 70 71 71 71 71 72 72 72 72 71 71 72 73 74 75 76 77 77 75 74 73 72 71 71 71 70 69 69 68 68 69 70 71 71 71 70 69
75 75 75 74 73 73 74 74 74 74 74 74 73 72 72 72 71 70 69 69 68 66 66 66 67 68 69 69 70 71 71 71 71 71 71 72 73 74 74 75 78 80 80 77 74 73 71 70 70 70 70 69 68 68 68 69 69 70 70 70 70 69 69
78 78 78 78 77 77 77 77 77 77 78 78 77 77 76 76 75 74 72 70 69 67 66 66 67 67 68 70 71 71 72 73 73 73 74 75 76 77 77 79 83 84 81 78 76 74 72 70 68 68 68 68 68 69 70 70 70 71 71 71 71 71 72

ECMWFFLT1_250_spd_036.txt.gz
Wind_Speed
39 39 39 38 38 38 39 39 39 38 36 34 33 33 34 35 35 34 33 31 31 31 31 33 36 37 34 31 30 31 31 31 29 27 25 24 24 29 36 40 39 39 39 38 38 37 37 38 40 41 42 43 42 42 41 40 40 40 40 40 40 39 39
41 41 40 40 40 41 42 42 42 40 39 37 35 33 34 34 34 33 33 31 30 30 30 32 34 33 31 30 30 30 30 30 29 28 27 26 25 25 30 37 42 43 42 41 40 39 39 39 39 41 42 43 43 43 43 44 44 45 46 46 45 43 42
44 44 43 43 44 44 44 44 43 42 40 39 37 35 34 34 34 33 32 31 30 30 31 31 30 29 28 28 29 29 28 28 28 28 27 27 27 27 27 31 37 42 45 45 45 44 44 43 43 43 44 45 46 47 47 47 48 49 49 49 49 48 47
47 46 45 45 44 43 43 43 43 42 40 39 37 35 35 35 34 33 31 30 30 31 30 28 27 27 27 27 28 27 27 27 27 27 27 27 27 28 29 30 32 36 41 44 46 47 48 48 47 47 47 48 49 49 49 49 49 49 50 50 50 49 48
48 47 45 43 42 41 40 42 42 40 38 36 36 35 35 36 36 34 33 32 32 33 32 30 30 30 30 30 30 29 28 27 26 26 25 25 26 27 28 30 31 33 35 38 40 43 45 46 47 48 49 50 50 51 51 51 50 50 50 50 49 47 46
47 46 43 41 39 38 39 39 39 38 37 36 35 35 35 36 37 38 37 37 37 37 37 37 36 36 35 35 35 34 32 30 27 25 24 24 25 26 27 28 30 31 32 33 34 36 38 40 42 44 46 47 48 49 49 49 48 48 47 47 46 45 44
46 44 42 40 38 38 38 38 38 37 37 37 36 36 36 37 38 40 41 41 42 43 43 43 42 41 40 39 39 38 36 32 28 26 25 25 25 26 28 29 29 30 31 31 31 32 32 34 36 38 40 40 41 42 42 43 43 42 42 42 42 42 43
44 42 41 41 40 39 38 38 38 38 37 37 38 37 37 38 39 41 42 44 45 46 46 46 45 45 45 44 42 41 38 35 31 28 26 25 25 26 28 30 31 31 31 32 32 32 32 32 34 36 37 37 38 39 39 40 40 39 39 40 40 40 41
45 43 42 43 43 42 40 40 40 39 38 38 39 39 40 40 41 42 44 45 46 47 48 48 48 49 48 46 45 44 42 38 34 31 28 27 26 26 28 29 31 31 32 34 34 34 33 34 35 36 36 36 37 38 39 39 39 39 40 40 41 41 41
49 46 47 47 45 43 42 41 41 41 40 40 41 41 42 43 44 45 45 46 47 49 50 50 50 49 49 48 46 45 44 42 39 35 32 30 28 28 29 30 31 31 32 34 36 36 36 36 37 39 39 39 39 39 40 40 40 40 40 41 42 43 44
52 51 51 50 47 45 43 41 40 41 42 43 44 44 44 45 46 46 47 47 48 49 49 50 50 49 49 48 47 45 45 44 43 41 38 35 33 32 32 32 32 32 32 34 35 37 39 39 40 42 43 43 44 44 43 42 42 42 41 42 42 43 44
51 51 50 48 46 45 44 42 41 40 41 43 44 45 46 46 46 47 47 48 48 49 50 50 50 50 49 49 48 47 46 45 45 45 43 41 38 37 36 36 36 37 37 37 37 38 40 41 43 44 45 46 47 47 46 45 44 44 44 44 44 44 45
47 48 47 46 45 45 44 44 43 42 42 43 44 44 44 44 45 45 45 46 47 48 49 50 50 50 49 49 49 48 48 47 47 47 46 45 44 42 41 41 42 42 42 42 41 41 42 44 46 47 48 48 47 47 47 46 46 47 47 46 46 46 46
45 46 48 48 49 48 48 47 47 47 47 47 46 46 45 45 45 45 44 44 45 46 48 48 48 49 49 49 49 49 48 48 47 47 48 48 48 47 46 46 46 45 45 44 43 42 43 46 48 50 51 50 49 47 47 47 47 48 49 49 48 48 48
44 46 48 50 51 52 51 51 51 52 52 52 52 51 51 50 50 49 47 46 45 46 47 47 48 49 49 49 49 49 49 48 48 48 49 50 50 50 50 49 49 48 48 46 45 44 45 48 50 51 51 50 49 47 48 49 50 50 51 51 51 50 50
39 42 45 49 52 54 54 54 55 55 55 55 55 55 55 55 55 54 51 49 48 48 49 49 50 50 50 50 50 50 50 50 49 49 50 50 51 52 52 52 53 52 51 49 48 48 50 53 53 51 49 48 47 46 47 50 52 53 53 53 53 53 52
29 33 36 40 43 47 50 52 53 54 55 55 55 55 55 55 55 55 53 52 51 50 50 51 51 51 50 50 50 51 51 51 51 51 51 52 53 54 54 54 55 54 54 53 54 55 56 56 53 50 47 46 46 46 47 49 52 54 55 55 56 56 56
30 30 31 33 36 41 44 48 51 53 55 56 57 57 56 55 54 54 53 53 52 52 51 52 52 52 51 51 51 52 52 52 53 53 54 54 55 56 57 57 58 58 59 59 60 59 57 54 51 49 48 47 47 48 48 50 52 54 55 56 56 56 56
36 36 37 37 39 43 48 51 54 57 59 60 61 60 58 56 53 51 50 51 52 52 53 53 54 54 54 54 54 54 54 54 54 55 56 57 57 58 59 59 59 60 61 61 60 58 56 53 51 49 48 47 47 48 49 50 51 53 54 55 54 54 53
43 44 46 46 47 50 53 53 52 53 55 57 59 59 59 59 56 54 53 53 54 54 55 56 56 56 56 56 55 55 54 54 54 54 55 56 56 57 57 58 59 59 59 59 58 57 55 53 51 50 49 48 48 49 51 52 53 53 53 52 52 51 51
48 49 51 53 54 54 54 52 50 49 48 48 50 52 53 55 57 57 58 59 58 58 59 59 59 58 58 57 56 54 54 53 52 53 53 55 57 58 59 60 61 61 61 59 57 56 55 54 53 53 52 51 50 51 52 52 52 52 51 50 51 52 53
53 52 53 54 56 55 54 54 54 51 48 46 46 48 50 51 53 55 56 58 60 61 63 63 62 62 61 59 57 55 55 54 54 55 56 58 60 61 62 63 63 62 60 58 55 54 54 55 55 55 55 54 54 53 52 51 50 50 51 51 53 55 57
55 55 54 55 57 58 56 55 54 52 51 49 47 50 53 55 57 57 59 61 63 64 65 64 63 63 62 61 59 57 57 58 59 60 61 62 63 64 64 64 63 61 58 57 56 55 55 55 56 56 56 56 56 55 53 52 51 51 52 54 55 57 59
53 55 55 54 57 57 55 55 55 52 50 50 50 51 53 56 61 62 63 64 64 64 65 65 65 65 64 63 62 61 61 62 64 65 66 66 67 67 66 65 63 62 61 59 58 56 56 56 56 57 57 57 57 55 54 54 54 55 57 57 58 59 60
50 51 51 51 53 52 49 49 52 52 51 51 54 56 57 59 63 64 62 63 64 65 67 68 68 67 65 64 64 65 66 68 70 71 71 71 70 69 68 67 65 65 65 64 62 60 58 57 57 58 59 60 59 58 57 57 58 59 61 61 62 62 61
59 58 55 52 54 53 48 45 48 53 57 58 60 62 63 65 67 66 64 64 67 68 69 69 69 68 68 68 69 71 73 74 75 75 74 72 71 70 69 68 67 67 67 66 66 64 63 61 61 61 62 63 63 62 61 61 61 62 63 63 63 63 63
68 68 66 64 63 61 58 53 53 56 61 64 65 65 64 62 64 67 69 69 71 72 73 74 74 74 75 75 76 77 78 78 78 77 74 72 71 69 69 69 68 67 67 67 67 67 67 66 64 64 63 64 64 64 64 65 65 65 64 64 64 64 65
74 73 73 74 72 70 69 68 67 67 67 69 71 71 69 65 66 71 74 75 77 78 79 80 80 80 81 81 81 81 81 80 78 75 74 72 71 70 70 69 68 68 68 68 68 68 68 67 66 66 66 66 66 66 66 67 68 67 67 67 67 67 68
78 78 77 77 77 76 76 76 76 77 77 76 77 79 80 80 81 83 83 83 84 84 84 84 85 85 85 84 82 81 79 77 76 74 74 73 72 71 71 69 68 67 66 65 65 66 67 67 66 66 66 67 68 69 70 70 71 72 72 73 73 72 73
80 79 79 78 78 78 78 78 79 80 80 81 81 82 83 85 86 86 86 85 85 85 85 85 85 84 83 82 80 78 77 76 75 74 74 73 73 73 73 71 67 64 62 62 63 65 68 68 67 67 69 69 70 72 74 76 77 77 77 78 77 76 75
81 80 79 79 79 79 79 79 79 79 79 80 80 80 81 82 82 81 81 81 80 80 81 81 81 81 81 81 79 78 77 76 75 74 74 74 74 74 74 73 71 68 67 68 70 71 73 73 72 73 74 75 75 77 78 80 80 79 80 80 78 76 75
81 81 81 80 80 80 79 79 78 78 79 79 79 79 79 79 79 78 77 77 77 77 78 78 79 79 80 80 79 79 78 77 76 75 74 74 73 73 73 73 72 71 71 72 73 74 74 74 75 75 76 77 78 79 81 81 81 79 79 78 76 74 73
83 82 82 82 81 80 80 80 79 79 79 80 80 80 80 80 79 79 78 78 78 78 78 78 79 79 79 79 79 78 77 75 74 73 72 70 70 70 70 69 69 69 69 70 71 72 72 72 74 75 75 76 78 80 81 81 80 77 75 74 73 72 71
83 83 83 82 82 82 82 81 81 81 81 81 81 82 82 82 81 80 80 80 80 79 79 78 78 78 78 78 78 77 74 72 72 71 70 68 67 66 67 67 67 68 68 68 69 70 70 72 73 74 75 77 79 81 81 79 77 75 72 71 70 69 69
82 82 82 82 82 82 82 82 82 82 82 81 81 81 81 81 81 80 79 78 77 76 76 76 75 76 76 77 77 76 74 72 72 71 70 69 68 68 68 68 68 69 69 69 69 70 71 72 72 73 74 76 78 80 81 78 75 73 71 69 69 69 69
81 81 81 81 81 81 81 81 80 80 80 80 80 79 79 79 79 78 77 77 75 74 73 73 73 74 75 76 78 77 76 75 74 72 71 70 70 70 70 70 70 70 70 69 69 70 71 71 70 71 73 76 78 81 82 80 78 75 74 73 74 74 73
80 80 80 80 80 80 80 80 80 80 79 79 79 79 79 78 78 78 77 76 76 76 75 74 74 74 75 76 78 79 79 78 77 75 73 71 70 71 71 72 72 71 71 72 72 71 70 71 71 73 76 80 83 84 84 84 83 81 80 79 78 78 76

ECMWFFLT1_250_spd_042.txt.gz
Wind_Speed
45 45 45 45 45 43 41 40 39 39 38 36 35 35 34 33 32 32 32 32 32 32 32 31 29 27 25 25 24 22 21 22 23 24 24 24 23 21 20 18 16 15 14 13 11 13 18 23 27 29 29 31 33 33 33 33 34 37 40 42 42 42 42
43 42 43 44 45 44 43 42 40 39 38 37 36 34 33 32 31 32 33 33 33 32 32 30 27 26 25 24 23 23 23 23 24 25 25 25 24 23 22 20 18 16 16 15 14 13 14 17 22 27 30 33 34 34 34 34 34 35 37 39 40 41 42
44 41 40 41 42 43 43 42 41 39 38 37 36 34 33 32 31 32 32 31 31 30 29 27 26 25 24 24 23 23 24 25 25 25 24 24 24 23 23 22 20 19 18 18 18 17 16 15 17 21 26 30 33 34 36 37 37 38 39 40 41 42 44
49 46 43 41 40 40 41 40 40 39 38 37 36 35 33 32 32 32 31 30 30 29 28 27 26 25 25 24 24 24 25 26 25 24 23 23 23 23 23 23 22 21 20 20 20 20 19 18 17 18 20 23 26 29 31 33 35 36 37 38 39 40 41
53 51 49 47 44 43 43 42 41 39 38 37 37 36 35 34 34 33 32 31 30 29 29 28 28 27 27 26 26 25 26 26 26 24 23 22 22 23 23 23 23 22 22 21 22 22 22 21 21 21 22 23 24 26 27 28 29 30 31 33 33 34 34
54 53 52 51 50 49 48 46 44 42 40 39 39 38 38 37 36 36 35 33 32 31 30 30 30 30 29 28 27 26 26 26 26 25 23 22 22 22 22 22 23 22 22 22 22 23 23 24 24 25 25 25 26 27 28 28 29 29 30 31 31 31 31
51 51 51 51 51 50 50 48 46 44 43 42 42 41 40 39 38 38 37 35 34 33 33 33 33 32 31 28 27 26 26 26 25 25 24 23 22 21 21 21 21 22 22 22 23 23 24 25 26 27 28 29 29 30 30 31 31 30 31 31 31 32 32
49 49 49 49 49 49 49 48 46 45 45 44 44 43 42 40 39 39 38 37 36 35 35 35 35 34 32 29 27 26 25 25 25 25 24 23 22 22 23 23 23 23 22 23 24 25 25 27 28 29 30 31 32 33 34 34 33 33 33 33 33 33 34
47 47 47 46 46 45 45 44 44 44 43 43 43 42 40 39 38 38 38 37 36 36 36 36 36 34 32 30 28 26 25 25 25 25 24 24 24 25 25 25 25 25 24 25 25 26 27 29 30 32 33 34 35 36 37 37 36 35 34 34 35 37 38
45 44 43 42 42 41 41 40 40 39 39 40 40 39 39 38 37 37 37 37 37 36 35 35 34 33 31 29 28 27 26 24 24 25 26 27 28 28 28 28 28 27 26 26 27 28 29 31 32 33 35 37 38 38 39 39 39 38 38 39 41 43 44
40 39 39 38 39 39 39 39 38 37 37 38 38 38 38 38 37 37 37 37 36 34 33 32 31 29 28 27 27 26 25 25 26 29 30 31 31 31 30 30 30 28 27 27 28 30 31 32 34 35 37 39 40 41 41 42 42 43 44 46 47 48 47
40 39 38 38 39 39 38 38 37 37 36 37 37 37 37 36 36 36 36 35 34 32 30 29 28 27 26 27 27 27 28 30 33 34 34 33 33 33 33 32 30 29 28 28 30 31 32 33 34 36 38 40 41 43 44 45 45 47 48 50 50 50 50
40 39 38 38 37 37 36 36 36 36 37 36 37 37 37 37 37 37 38 37 36 34 32 31 31 30 31 31 32 34 35 36 36 36 36 36 36 36 35 33 30 29 29 30 31 32 32 33 33 35 37 39 41 44 45 46 48 49 50 51 52 52 52
37 37 37 35 34 35 35 36 37 37 38 38 39 39 39 39 39 38 39 38 37 36 35 34 34 34 35 36 37 37 37 37 38 39 39 39 39 38 36 34 32 30 31 32 33 34 34 34 34 35 36 38 40 43 45 47 48 49 50 51 52 51 50
34 34 35 35 36 38 38 38 38 39 39 39 39 40 40 39 38 38 37 37 37 37 37 37 37 37 37 38 38 39 40 41 42 42 41 40 40 39 38 36 34 33 34 35 36 36 36 36 36 37 38 39 40 42 43 45 47 48 49 49 49 49 50
35 35 36 38 39 40 39 39 39 39 39 40 40 40 40 39 39 38 38 38 38 38 39 39 39 38 38 39 39 41 42 43 42 42 41 42 42 40 39 37 36 36 36 37 38 39 39 39 39 39 40 41 41 41 42 43 45 46 46 45 48 51 53
36 36 38 38 38 38 37 37 37 37 38 38 39 39 40 39 39 39 38 38 39 39 40 40 40 40 40 40 41 42 43 43 43 43 43 43 42 40 38 37 36 37 38 39 41 42 42 41 41 42 43 43 42 42 43 43 44 44 45 48 53 55 52
36 36 36 35 34 33 34 34 35 35 36 38 38 38 39 39 39 39 39 39 40 40 41 41 42 42 42 43 43 43 43 42 42 43 43 42 40 39 37 37 37 38 40 42 44 45 44 44 44 45 45 44 43 43 44 45 46 48 50 54 56 52 47
35 35 34 33 32 32 34 35 35 36 38 39 39 38 38 39 39 40 41 42 42 42 42 44 44 44 45 45 44 43 43 42 42 42 41 40 39 39 39 40 41 43 44 46 48 48 47 46 46 48 48 47 46 46 47 48 51 53 56 57 54 50 46
32 32 31 31 33 33 35 37 37 38 38 39 38 38 37 39 41 42 43 44 44 44 46 46 46 46 46 45 44 43 41 40 39 39 39 39 40 42 43 45 47 48 49 51 51 50 49 48 49 51 51 51 50 50 51 54 57 58 58 57 54 50 47
32 31 31 33 35 36 37 38 38 38 39 39 39 39 40 42 44 45 45 46 46 47 48 47 46 46 46 45 43 42 40 38 38 39 40 41 43 46 49 50 51 52 54 55 54 52 51 51 53 54 54 54 54 55 57 61 63 62 60 58 54 51 49
34 33 34 35 37 37 37 38 39 40 41 41 41 42 43 45 46 47 48 49 49 48 48 47 47 46 45 43 41 40 40 41 42 43 45 47 50 53 54 55 56 57 57 57 55 54 54 54 56 57 57 57 58 60 63 65 65 64 62 59 55 53 51
36 37 38 40 40 39 39 39 40 42 43 44 45 46 48 50 51 52 53 53 52 50 48 47 45 43 41 39 39 40 42 44 47 49 51 54 56 58 59 59 60 60 59 57 55 55 57 58 59 60 61 63 65 66 66 65 64 62 60 58 56 54 53
40 41 42 43 43 42 41 42 43 44 46 49 51 52 53 54 54 53 52 51 49 47 46 44 42 41 40 40 42 44 46 50 52 55 57 59 60 60 61 62 63 62 61 60 59 60 62 63 64 66 68 69 68 66 64 62 61 60 58 58 56 55 54
46 47 48 47 47 46 47 48 50 52 53 54 55 55 55 54 53 51 49 47 45 44 43 43 42 42 42 44 46 50 53 56 59 60 61 62 62 62 63 64 65 65 65 64 65 66 68 70 71 72 72 70 67 64 62 61 60 58 58 58 56 55 54
52 52 53 52 52 52 52 53 54 55 55 55 54 53 52 51 50 50 50 50 49 47 46 46 46 47 49 52 55 58 60 61 62 63 64 64 64 65 66 67 68 68 69 70 71 72 74 75 74 73 70 68 65 63 62 61 61 59 59 58 56 55 55
55 55 55 55 55 55 54 54 54 55 55 56 55 54 53 52 51 52 52 53 53 52 52 52 54 55 58 60 62 63 64 64 64 65 66 67 67 69 70 71 72 74 75 75 76 76 75 74 72 69 68 66 65 64 64 63 62 61 59 58 56 56 55
61 59 58 57 58 57 57 57 57 57 58 58 58 58 58 58 58 58 58 59 59 59 59 60 61 62 64 66 67 69 70 70 71 71 71 72 73 74 75 75 76 77 77 76 75 74 73 71 70 68 68 66 65 65 65 63 62 60 59 58 57 56 56
65 64 63 62 62 62 61 61 61 61 62 62 62 63 63 63 64 65 66 67 67 66 66 67 67 68 69 71 72 74 75 76 77 78 78 78 79 79 79 78 78 78 77 76 76 75 74 72 71 70 69 67 66 65 63 62 60 60 59 57 56 55 55
69 68 68 67 67 67 67 67 67 67 67 68 68 69 69 69 70 70 71 72 73 72 72 72 73 74 75 76 77 78 80 81 81 81 82 83 83 82 81 80 80 79 78 78 77 76 75 73 72 70 69 67 66 63 61 60 59 58 58 56 55 55 55
73 73 72 71 71 71 71 71 71 71 72 72 73 73 73 73 73 74 75 76 77 77 78 78 79 80 80 81 82 83 84 84 85 84 85 86 86 84 83 82 81 80 79 79 78 76 74 73 71 70 68 66 65 62 61 60 58 57 56 54 54 55 55
75 76 76 76 76 77 77 77 77 77 76 76 76 76 76 76 76 77 78 79 80 81 82 83 83 84 85 86 87 88 88 88 88 88 88 88 87 85 83 82 81 80 79 78 77 75 73 72 70 68 67 66 64 62 61 61 59 58 56 53 53 55 56
77 78 79 80 80 81 82 82 82 82 81 81 80 80 80 80 81 81 82 82 83 84 86 86 87 88 89 89 90 90 91 90 90 90 90 89 87 85 83 82 81 80 78 77 76 74 73 71 70 68 67 66 65 64 63 62 61 61 60 57 55 57 59
80 80 81 82 83 84 85 85 85 85 85 84 84 84 84 84 85 85 85 86 87 88 89 90 90 90 91 91 92 92 93 93 93 93 92 90 88 86 84 82 80 79 78 76 75 74 73 72 71 70 69 68 68 68 67 66 65 65 65 63 61 61 62
84 84 85 85 86 87 87 87 88 88 89 89 89 89 89 89 89 89 90 90 90 90 91 92 93 93 94 94 95 96 96 96 96 94 92 90 87 85 83 81 79 78 77 77 76 75 75 75 74 73 72 72 72 72 72 71 70 70 70 69 68 67 67
87 87 88 88 89 90 90 90 91 91 92 93 93 93 93 93 93 93 92 92 92 92 92 93 94 95 96 97 98 98 97 96 95 93 90 87 85 83 82 80 79 79 79 79 78 78 78 78 78 77 77 76 76 76 76 76 75 74 74 74 73 73 72
89 90 91 91 92 93 93 93 93 94 94 95 95 95 95 95 95 94 94 95 95 95 95 96 97 97 98 98 98 98 96 94 92 90 87 85 83 82 81 81 81 81 81 81 81 81 81 81 81 81 80 80 80 80 80 80 80 79 78 77 77 77 77

ECMWFFLT1_250_spd_045.txt.gz
Wind_Speed
48 47 46 45 44 43 40 38 37 36 37 38 38 38 37 36 35 35 34 33 32 32 32 31 29 28 26 24 21 19 18 18 17 18 19 20 20 20 19 19 18 17 16 15 15 15 16 18 18 18 18 20 21 23 24 25 27 29 30 30 31 32 33
51 50 49 48 46 45 42 40 39 38 38 37 37 37 37 36 36 35 34 34 33 33 32 31 29 27 25 24 22 21 20 19 19 19 20 19 19 19 18 17 17 17 16 16 16 16 16 16 17 18 20 23 25 28 29 29 30 30 31 31 32 33 35
54 53 51 49 48 46 44 43 42 40 39 39 38 36 36 35 35 35 34 34 34 33 32 31 29 27 26 25 24 24 22 21 20 20 20 20 19 18 16 15 15 16 16 16 17 17 17 16 16 16 18 20 23 24 26 29 31 31 32 33 34 35 36
52 52 52 51 50 48 47 46 46 45 44 44 43 41 39 38 38 37 36 35 35 33 32 31 30 28 27 27 26 25 24 23 22 22 21 20 19 18 16 15 15 15 16 16 17 18 19 18 17 16 17 18 20 21 22 24 26 28 28 30 31 33 34
50 49 50 51 50 50 50 50 50 50 49 48 47 45 44 43 42 41 39 38 36 35 33 32 30 28 28 28 27 26 25 24 23 23 22 21 20 18 16 15 16 16 16 17 18 19 20 20 19 18 18 18 19 20 21 23 24 25 26 26 27 29 30
49 48 48 48 49 49 50 51 51 50 48 47 46 45 44 43 43 41 40 38 36 34 33 31 29 28 28 27 27 25 25 24 24 24 23 21 20 19 17 17 17 17 17 17 19 20 21 22 21 20 20 19 19 20 21 23 25 26 27 28 28 29 30
52 52 51 50 48 47 46 46 46 45 44 43 43 42 42 41 41 39 38 36 35 33 31 30 28 28 27 27 26 25 25 24 24 24 23 22 21 20 19 18 19 20 20 20 21 22 23 23 22 21 21 21 21 21 22 24 25 27 28 30 31 32 33
51 50 50 48 46 44 43 43 43 42 41 40 40 39 39 39 39 38 36 34 32 30 29 28 27 27 26 26 26 25 25 24 24 24 24 23 22 21 20 21 21 22 22 22 23 24 24 23 22 21 22 22 23 23 24 26 27 28 30 31 33 34 35
47 45 43 43 42 41 40 41 40 39 39 39 39 38 38 37 37 36 34 32 30 28 27 27 26 26 26 26 26 26 25 24 24 25 24 23 23 22 22 23 24 24 24 24 25 25 24 23 22 21 22 23 24 25 26 27 29 30 32 33 34 35 36
48 46 43 42 42 41 41 40 39 39 40 40 39 37 36 35 35 34 32 31 29 27 26 26 26 26 27 27 27 26 26 25 25 25 25 24 24 24 25 26 26 26 26 27 26 24 23 22 22 22 22 23 25 26 26 27 29 31 32 34 35 37 38
51 49 47 46 44 43 42 40 39 39 39 39 38 36 34 34 33 33 32 31 29 27 26 26 26 26 27 27 27 27 26 26 25 25 25 25 25 26 27 28 28 29 29 29 26 24 23 23 22 22 23 24 25 26 27 27 28 30 31 34 36 38 39
45 46 45 45 44 42 41 40 38 38 38 37 36 35 33 32 32 32 31 31 29 26 26 26 26 27 28 28 28 27 27 27 26 27 27 27 28 29 29 30 31 32 32 30 27 25 24 24 24 24 25 25 26 26 27 28 29 30 31 33 35 37 39
32 33 33 34 35 35 36 36 35 36 36 36 35 34 32 30 30 30 30 30 28 27 28 28 27 28 28 29 28 28 28 28 28 28 29 29 30 31 32 32 34 34 33 31 28 26 26 25 26 26 27 27 28 29 30 30 31 32 33 33 34 36 37
28 28 28 29 30 31 32 33 34 35 36 35 33 31 30 29 29 30 30 31 31 30 30 29 29 28 29 29 29 29 29 29 30 30 30 31 32 33 34 36 37 36 34 31 28 27 27 27 27 28 29 29 30 31 32 33 34 34 35 35 36 36 36
33 32 32 32 33 34 34 34 34 35 34 33 32 31 31 32 32 33 33 33 32 31 30 30 29 29 29 29 30 30 30 30 30 31 31 32 33 35 37 39 38 37 34 31 28 28 28 28 29 30 30 31 33 35 36 36 35 36 37 38 38 38 37
34 35 35 36 37 39 39 37 35 34 34 35 35 36 37 37 37 36 35 33 31 30 29 29 30 30 30 30 30 29 29 29 30 31 33 34 36 38 39 39 38 36 33 31 30 29 28 29 30 31 32 34 36 38 39 39 38 38 39 41 41 41 40
32 34 36 37 38 39 38 36 35 35 36 38 40 41 40 39 38 36 35 33 31 30 30 30 30 31 30 29 28 28 29 30 32 34 35 37 38 39 40 39 37 35 34 32 31 29 29 30 31 33 35 36 39 42 43 43 43 41 42 43 45 45 44
33 35 36 37 37 36 36 36 37 38 39 42 43 42 40 38 37 36 35 33 32 32 32 32 31 30 29 29 29 30 32 34 36 37 38 39 40 40 40 38 36 35 34 33 32 32 32 33 34 36 38 40 43 46 47 47 46 45 44 46 48 49 49
35 36 37 38 38 37 38 39 40 39 39 40 41 39 38 37 37 36 35 34 34 34 34 33 31 30 30 31 32 34 37 38 40 41 41 42 42 41 39 38 37 37 36 35 34 35 36 37 39 40 42 44 47 49 50 50 49 48 47 49 51 53 53
38 34 34 36 38 40 41 40 39 37 36 36 37 37 37 37 37 36 35 35 35 35 34 33 32 31 32 35 37 39 41 43 43 44 44 43 42 40 40 40 39 38 37 37 38 39 40 42 44 46 48 49 51 52 53 53 52 51 51 53 55 57 58
41 36 34 34 36 39 41 40 40 39 39 39 39 38 38 38 38 38 37 37 36 36 36 35 34 35 38 41 43 44 45 45 46 45 45 44 43 42 41 41 39 39 39 40 41 44 46 48 49 51 53 54 55 55 56 56 56 55 56 57 59 61 62
43 40 40 39 38 39 40 41 42 43 44 43 42 41 41 41 41 40 40 39 38 38 38 38 39 42 45 46 47 47 47 46 46 46 45 45 44 43 42 40 40 40 41 43 46 49 51 53 54 55 56 57 58 59 59 59 60 60 61 62 63 64 63
45 42 42 43 43 43 41 41 43 43 42 42 42 42 43 43 41 41 41 40 40 41 41 43 46 48 49 48 47 47 47 47 47 47 46 46 45 43 42 42 42 43 45 48 52 54 55 56 57 58 59 60 61 61 62 63 64 65 65 65 65 65 64
45 43 42 42 44 46 44 44 45 43 41 41 40 41 43 43 42 43 44 44 44 45 47 50 51 50 49 49 49 49 49 48 47 46 45 44 43 42 42 44 45 47 51 54 57 58 59 59 61 62 62 63 63 63 64 65 67 68 69 68 67 67 66
46 44 44 44 45 47 48 48 48 46 45 44 44 44 44 45 46 47 48 48 48 50 52 53 53 52 51 50 49 48 46 44 43 42 42 42 42 43 45 48 51 54 57 60 62 62 63 64 65 66 67 67 67 66 67 68 70 71 71 70 70 69 68
52 50 48 47 46 46 47 48 48 49 49 49 49 49 49 49 50 51 51 51 52 53 53 53 51 50 48 47 46 45 43 42 43 45 46 46 48 50 53 56 59 61 63 65 66 67 68 69 70 71 71 71 71 71 71 72 73 73 73 72 71 70 68
54 54 53 51 49 48 48 48 48 48 49 50 50 51 52 53 53 53 53 53 54 53 52 51 49 48 48 48 48 48 48 49 50 52 53 54 56 58 61 63 65 66 68 69 71 73 74 74 75 76 76 76 75 74 74 74 75 75 74 73 71 69 67
54 55 55 55 54 53 53 53 53 52 51 51 50 51 52 53 53 53 53 53 54 54 54 54 54 55 55 56 56 57 57 58 59 60 61 63 64 65 67 69 70 71 73 74 76 77 78 78 78 79 79 78 77 76 76 76 76 75 73 72 69 67 65
55 56 57 58 58 58 57 56 56 56 55 55 55 54 55 55 55 55 56 56 57 58 59 60 61 61 62 62 63 64 64 65 67 68 69 69 70 71 71 72 74 75 76 77 78 79 80 80 80 80 79 78 78 77 77 77 76 74 72 70 67 65 64
59 59 60 61 62 63 62 61 60 59 59 59 59 59 60 60 61 61 62 63 64 65 66 67 68 68 69 69 69 70 71 71 72 72 72 73 73 74 75 75 76 77 78 80 80 80 80 80 80 80 80 79 80 79 78 76 74 72 69 67 66 65 63
62 62 63 64 65 66 67 67 68 67 67 67 67 67 68 68 69 69 69 70 70 71 71 72 72 73 73 73 74 74 74 74 75 75 75 76 76 77 78 78 79 79 80 81 82 81 81 81 81 82 82 82 81 79 77 75 73 70 68 66 66 65 63
66 66 66 67 68 68 69 70 71 71 72 73 73 73 73 73 73 74 74 74 74 74 74 75 76 76 77 77 77 78 78 78 78 79 79 80 80 81 81 81 82 82 82 82 83 83 82 83 83 83 83 82 79 77 76 75 72 70 69 67 67 66 65
70 71 71 71 72 72 72 72 73 73 74 75 75 76 76 77 77 77 77 77 78 78 78 78 79 79 80 81 81 81 82 82 82 83 83 84 84 84 84 84 84 84 84 84 85 85 85 84 84 84 83 80 78 76 75 74 73 72 71 70 69 70 70
74 75 75 76 75 75 75 75 75 76 76 77 78 79 79 80 80 80 81 81 81 81 81 81 82 82 83 84 84 85 85 85 86 86 86 86 86 86 86 86 86 86 86 86 87 87 86 86 85 84 82 80 78 76 76 75 74 74 73 73 73 73 74
77 78 78 79 78 78 79 79 79 79 79 80 81 81 82 83 83 84 84 84 85 85 85 86 86 87 87 88 88 89 89 89 88 88 88 88 88 88 88 88 88 89 89 88 88 88 88 87 85 84 82 81 80 78 77 77 77 77 77 77 77 77 77
79 80 81 81 81 81 81 82 82 83 83 84 85 85 86 87 87 88 88 89 89 90 90 90 91 91 91 91 91 92 92 92 91 90 90 89 89 89 89 89 90 90 90 90 90 90 89 87 86 84 84 83 83 82 81 80 80 80 81 81 81 80 80
81 82 83 83 84 84 84 85 85 86 86 87 87 88 89 90 90 91 91 92 92 93 93 93 94 94 94 95 95 95 95 94 93 92 91 90 90 90 90 90 90 90 91 91 91 90 90 88 87 87 86 86 86 86 85 84 84 84 84 84 84 84 85

ECMWFFLT1_250_spd_048.txt.gz
Wind_Speed
49 46 44 41 40 39 38 38 38 38 38 38 38 37 37 35 34 32 30 30 29 29 29 28 28 27 26 25 25 25 25 24 22 20 18 16 16 17 18 18 17 16 15 15 14 15 16 16 17 18 18 18 19 20 20 21 22 23 23 24 25 26 26
52 51 49 46 44 43 42 42 42 43 42 41 40 39 38 37 36 34 33 33 33 32 31 31 30 29 29 28 28 28 27 25 22 20 18 17 16 17 18 18 17 16 16 15 15 15 15 16 19 20 20 21 20 20 20 22 24 26 27 28 28 30 31
57 57 55 53 50 49 49 49 49 48 47 44 42 41 40 39 37 36 36 37 37 37 36 35 35 34 33 33 32 30 28 25 22 19 18 17 17 17 17 17 17 16 16 15 15 15 15 17 20 21 22 22 23 22 21 22 24 27 30 33 34 34 34
55 57 57 55 53 52 52 52 51 50 48 46 45 43 41 40 39 38 38 38 38 38 38 37 37 37 36 34 33 31 28 25 21 19 18 18 17 16 16 17 18 17 16 15 16 17 17 19 20 20 21 23 24 24 24 23 23 24 27 29 32 33 33
51 53 53 53 52 51 50 49 48 47 47 46 45 44 43 42 40 39 38 38 38 38 37 37 37 36 35 33 32 30 27 24 21 19 18 18 17 17 17 17 18 19 19 18 18 19 19 20 20 20 22 25 26 26 26 26 25 24 24 24 26 27 27
52 50 49 48 48 48 46 44 43 43 43 44 44 45 44 43 41 40 39 38 38 37 37 36 36 35 33 32 31 29 26 24 21 19 19 18 18 18 20 19 18 21 22 21 20 19 20 22 23 24 25 27 27 27 27 28 28 28 27 28 28 28 28
51 50 50 50 49 48 47 47 46 46 46 46 46 46 45 43 42 40 39 38 37 36 36 35 35 33 32 31 29 27 25 23 21 21 20 19 19 20 21 20 20 22 23 22 22 21 21 23 25 25 26 28 28 27 26 26 27 28 29 29 30 30 30
54 54 55 54 54 53 52 51 49 47 45 44 44 44 43 41 40 39 39 37 36 35 34 34 34 32 31 30 28 26 25 23 22 22 22 21 21 21 22 22 23 24 24 24 24 23 22 23 25 26 27 27 27 26 24 24 24 26 27 27 28 29 29
55 55 53 51 50 50 49 48 46 44 41 40 40 40 39 39 38 37 37 36 35 34 33 33 32 32 31 29 28 26 25 24 23 23 23 23 22 23 23 24 24 25 25 25 26 25 23 23 24 26 26 26 25 24 23 23 23 24 25 26 27 28 28
44 43 43 43 43 43 44 44 43 43 42 41 39 38 37 36 35 34 34 34 34 34 32 32 32 31 31 30 29 27 26 25 24 25 25 25 25 24 25 25 26 27 27 27 28 27 25 25 25 25 25 25 24 24 23 22 23 23 24 25 27 28 29
35 35 34 36 38 40 43 44 44 44 44 42 39 36 34 34 33 33 33 33 33 32 31 31 32 32 31 30 29 28 27 26 25 25 26 27 26 26 26 27 28 28 29 29 29 28 27 27 27 25 25 25 24 24 24 23 23 23 23 24 26 27 29
32 31 31 31 32 34 37 39 40 40 39 37 35 33 33 33 34 33 33 32 31 31 31 31 31 31 30 29 29 28 27 27 26 27 28 28 28 28 28 28 28 29 29 29 29 28 29 30 30 28 27 26 25 24 25 25 25 24 24 24 25 26 27
33 33 33 32 32 32 33 33 33 33 32 31 30 29 30 32 33 33 32 31 30 30 31 30 30 30 30 29 28 28 28 29 29 29 29 30 30 29 29 29 29 29 29 29 29 30 31 32 31 30 28 27 26 26 26 26 27 27 26 26 26 26 27
37 37 36 35 34 34 33 32 31 29 28 27 27 27 28 29 31 31 31 31 31 30 30 30 29 29 29 29 29 30 30 30 30 30 31 31 31 31 31 30 29 27 27 28 29 31 32 32 31 30 30 30 29 28 28 28 28 28 29 29 29 29 30
39 36 35 35 35 35 35 33 30 29 28 27 27 27 28 30 31 32 32 32 31 30 30 30 30 30 31 31 32 32 32 32 31 31 32 32 32 32 30 28 27 27 28 29 31 31 32 31 30 30 31 31 30 29 29 29 30 30 30 31 32 33 34
41 38 35 34 35 35 34 33 31 29 28 28 28 30 32 33 35 35 34 34 33 32 32 33 33 34 35 35 35 34 33 32 32 33 33 33 32 31 29 28 28 29 30 31 31 32 32 30 30 31 32 31 30 30 30 31 31 32 33 34 36 37 38
44 41 38 36 35 34 33 32 30 30 30 31 32 33 35 36 36 36 35 35 35 35 35 36 37 37 37 37 36 35 34 34 34 34 34 33 31 29 29 30 31 32 33 33 33 33 32 31 31 33 33 31 30 30 32 33 34 35 37 38 40 41 43
47 45 43 40 37 35 35 34 34 34 35 37 38 38 38 38 37 36 36 36 37 37 37 38 38 38 38 37 37 35 35 35 35 34 33 31 30 31 33 34 35 35 35 35 34 34 34 34 35 36 35 33 31 32 33 35 36 38 41 43 44 46 47
49 48 46 44 42 40 39 38 38 40 41 41 41 40 39 39 39 38 39 39 40 40 39 38 38 39 39 39 38 36 35 35 34 33 32 32 33 35 36 37 38 37 36 36 36 36 37 37 38 38 37 35 34 35 36 38 40 42 44 46 49 51 53
43 44 44 45 46 46 45 44 42 41 42 40 39 39 39 39 40 40 40 41 41 41 41 40 40 41 41 40 38 37 35 34 34 34 35 36 37 39 40 40 40 39 38 38 38 39 40 41 41 40 38 37 37 38 39 41 43 45 48 50 53 56 58
37 39 40 43 45 45 44 44 42 40 41 40 39 40 41 41 42 41 41 41 41 42 42 42 41 41 39 39 38 36 35 34 35 36 38 40 41 43 43 43 43 42 41 41 41 42 42 42 42 41 40 39 40 41 43 45 47 50 52 55 58 60 61
41 42 42 42 43 41 39 39 39 38 39 39 40 41 41 40 40 39 39 39 40 41 42 42 41 40 39 39 39 37 37 37 38 40 42 45 46 46 46 46 45 44 43 44 44 43 43 42 42 41 41 41 42 44 47 50 52 55 58 61 63 64 65
45 45 45 43 42 41 39 39 40 39 38 38 38 40 40 40 40 41 41 42 44 44 44 43 42 42 42 41 40 38 39 40 42 45 48 49 49 49 48 47 46 45 45 45 44 43 42 42 42 43 43 44 46 49 52 56 58 61 63 65 66 67 67
45 45 45 44 42 42 42 45 46 46 45 45 44 44 45 45 46 47 48 48 48 47 45 44 44 44 44 43 41 41 43 45 48 50 51 51 50 49 48 46 46 46 45 44 43 42 42 43 44 45 46 49 52 55 59 62 64 66 67 68 68 68 68
43 43 43 43 42 42 44 47 48 48 49 51 51 52 53 53 53 53 51 50 48 47 46 45 44 45 45 45 45 47 49 51 52 52 52 51 50 49 47 46 46 45 44 44 44 44 45 47 49 51 53 56 60 62 65 66 68 69 69 69 70 70 70
45 46 45 45 45 44 46 48 50 50 51 53 54 56 56 55 54 52 50 49 48 48 47 47 47 47 48 49 50 52 52 53 53 52 50 50 50 49 48 48 48 48 48 48 50 51 52 54 57 59 62 65 67 68 69 70 71 71 71 71 71 71 71
48 50 50 49 49 48 49 50 52 54 55 55 56 56 56 56 55 53 52 50 49 49 49 49 50 50 51 51 51 52 52 52 52 51 50 51 51 52 51 52 53 54 55 57 58 60 62 64 66 68 69 70 71 71 72 72 73 73 73 73 73 73 72
52 53 53 52 52 52 51 52 54 55 56 57 57 56 54 53 52 52 52 51 50 49 49 49 50 51 53 53 53 53 53 53 52 52 53 54 55 56 57 59 61 63 65 66 67 69 70 71 71 72 72 73 74 74 74 75 75 75 75 75 75 74 73
53 54 55 55 54 53 53 54 55 56 58 58 58 57 55 52 50 49 49 49 49 50 50 50 51 52 54 55 55 55 56 56 57 57 58 60 62 64 66 69 70 72 72 72 72 73 73 73 74 74 75 75 76 76 76 76 77 77 77 77 75 74 73
52 53 55 56 56 55 55 55 56 57 58 59 60 60 60 58 56 55 55 55 55 55 55 55 55 56 56 58 59 60 61 62 64 65 67 69 71 72 73 74 75 75 75 75 75 76 76 76 76 76 77 78 78 79 79 79 79 79 78 76 75 74 74
52 52 54 55 55 55 55 56 57 58 59 60 60 61 61 61 61 61 61 61 60 60 60 60 61 62 63 64 66 68 69 70 72 73 75 76 76 76 76 77 77 77 77 77 78 78 78 79 79 80 81 82 82 82 81 81 80 80 78 76 76 76 76
54 54 55 56 56 56 56 56 57 58 59 60 61 62 63 63 64 65 65 65 65 66 66 67 68 69 70 71 73 74 75 76 77 78 78 79 79 79 79 80 80 80 80 80 81 82 83 84 85 85 85 85 84 83 83 82 80 79 79 79 78 78 77
56 56 57 58 59 60 60 60 61 61 62 62 63 64 65 66 67 68 68 69 69 70 71 72 73 74 75 76 77 78 79 79 80 81 81 82 82 83 83 84 84 84 85 86 87 87 88 88 88 88 87 86 86 85 85 84 82 81 81 81 80 79 78
59 59 59 59 61 62 63 64 65 66 66 67 67 68 68 68 69 70 71 72 73 74 75 76 77 78 79 80 80 81 81 82 83 84 84 85 86 87 88 88 88 89 90 91 90 90 90 90 90 89 88 88 88 87 86 86 85 84 83 82 81 80 80
64 63 63 62 63 64 65 66 68 69 70 71 72 73 73 73 74 76 77 78 78 79 80 80 81 81 82 82 83 84 84 85 86 87 88 89 90 90 91 92 92 92 92 93 92 92 92 91 91 90 90 90 90 89 88 87 87 86 84 83 83 82 81
67 67 67 67 68 68 69 70 72 73 74 75 77 77 78 78 79 80 81 82 82 83 83 83 84 84 85 86 87 87 88 89 90 91 91 92 93 93 94 94 94 93 94 93 93 93 92 92 92 92 92 91 91 91 90 89 88 87 86 85 84 84 83
71 71 71 71 72 73 74 75 76 77 77 78 79 80 80 80 81 82 83 84 85 85 86 86 87 87 88 89 90 91 92 92 93 93 93 93 94 94 93 93 93 94 94 94 94 94 94 94 93 93 92 92 92 92 91 90 89 89 89 88 87 87 87